Observation data for Fritch on 11/14/2019      Previous  Date       Current Mesonet Observations  Soil Data  Daily Summary Page  Observations in Plain Language
KFR1 140600Z 05005KT 04/M04 A3017 RMK A01 T00411040  RH  055%=      5-min Rain = 0
KFR1 140601Z 04005KT 04/M04 A3018 RMK A01 T00401041  RH  055%=      5-min Rain = 0
KFR1 140602Z 05004KT 04/M04 A3018 RMK A01 T00401041  RH  056%=      5-min Rain = 0
KFR1 140603Z 05004KT 04/M04 A3018 RMK A01 T00391040  RH  056%=      5-min Rain = 0
KFR1 140604Z 05004KT 04/M04 A3018 RMK A01 T00391040  RH  056%=      5-min Rain = 0
KFR1 140605Z 05005KT 04/M04 A3018 RMK A01 T00391040  RH  056%=      5-min Rain = 0
KFR1 140606Z 05005KT 04/M04 A3018 RMK A01 T00401040  RH  056%=      5-min Rain = 0
KFR1 140607Z 05006KT 04/M04 A3018 RMK A01 T00411039  RH  056%=      5-min Rain = 0
KFR1 140608Z 06006KT 04/M04 A3018 RMK A01 T00411040  RH  056%=      5-min Rain = 0
KFR1 140609Z 06007KT 04/M04 A3018 RMK A01 T00411040  RH  056%=      5-min Rain = 0
KFR1 140610Z 06007KT 04/M04 A3018 RMK A01 T00421039  RH  056%=      5-min Rain = 0
KFR1 140611Z 05006KT 04/M04 A3018 RMK A01 T00421039  RH  056%=      5-min Rain = 0
KFR1 140612Z 05006KT 04/M04 A3018 RMK A01 T00421039  RH  056%=      5-min Rain = 0
KFR1 140613Z 05006KT 04/M04 A3018 RMK A01 T00401040  RH  056%=      5-min Rain = 0
KFR1 140614Z 04006KT 04/M04 A3018 RMK A01 T00391040  RH  056%=      5-min Rain = 0
KFR1 140615Z 04006KT 04/M04 A3018 RMK A01 T00391039  RH  057%=      5-min Rain = 0
KFR1 140616Z 04005KT 04/M04 A3018 RMK A01 T00381039  RH  057%=      5-min Rain = 0
KFR1 140617Z 03004KT 04/M04 A3018 RMK A01 T00371040  RH  057%=      5-min Rain = 0
KFR1 140618Z 03005KT 04/M04 A3018 RMK A01 T00371039  RH  057%=      5-min Rain = 0
KFR1 140619Z 04005KT 04/M04 A3019 RMK A01 T00371040  RH  057%=      5-min Rain = 0
KFR1 140620Z 04004KT 04/M04 A3019 RMK A01 T00371039  RH  057%=      5-min Rain = 0
KFR1 140621Z 04004KT 04/M04 A3019 RMK A01 T00371039  RH  057%=      5-min Rain = 0
KFR1 140622Z 04004KT 04/M04 A3019 RMK A01 T00371039  RH  058%=      5-min Rain = 0
KFR1 140623Z 04003KT 04/M04 A3019 RMK A01 T00361039  RH  058%=      5-min Rain = 0
KFR1 140624Z 04004KT 04/M04 A3019 RMK A01 T00361039  RH  058%=      5-min Rain = 0
KFR1 140625Z 05003KT 04/M04 A3019 RMK A01 T00361039  RH  058%=      5-min Rain = 0
KFR1 140626Z 04003KT 04/M04 A3019 RMK A01 T00361039  RH  058%=      5-min Rain = 0
KFR1 140627Z 05003KT 04/M04 A3019 RMK A01 T00361039  RH  058%=      5-min Rain = 0
KFR1 140628Z 04003KT 04/M04 A3019 RMK A01 T00361039  RH  058%=      5-min Rain = 0
KFR1 140629Z 03001KT 04/M04 A3019 RMK A01 T00361039  RH  058%=      5-min Rain = 0
KFR1 140630Z 03002KT 04/M04 A3019 RMK A01 T00361039  RH  058%=      5-min Rain = 0
KFR1 140631Z 03002KT 04/M04 A3019 RMK A01 T00361038  RH  058%=      5-min Rain = 0
KFR1 140632Z 04002KT 04/M04 A3019 RMK A01 T00371038  RH  058%=      5-min Rain = 0
KFR1 140633Z 04002KT 04/M04 A3019 RMK A01 T00361038  RH  058%=      5-min Rain = 0
KFR1 140634Z 05001KT 04/M04 A3019 RMK A01 T00361038  RH  058%=      5-min Rain = 0
KFR1 140635Z 07002KT 04/M04 A3019 RMK A01 T00371038  RH  058%=      5-min Rain = 0
KFR1 140636Z 08002KT 04/M04 A3019 RMK A01 T00371038  RH  058%=      5-min Rain = 0
KFR1 140637Z 07001KT 04/M04 A3019 RMK A01 T00371038  RH  058%=      5-min Rain = 0
KFR1 140638Z 08001KT 04/M04 A3019 RMK A01 T00371038  RH  058%=      5-min Rain = 0
KFR1 140639Z 07002KT 04/M04 A3019 RMK A01 T00361039  RH  058%=      5-min Rain = 0
KFR1 140640Z 07002KT 04/M04 A3019 RMK A01 T00361039  RH  058%=      5-min Rain = 0
KFR1 140641Z 06003KT 04/M04 A3019 RMK A01 T00351039  RH  058%=      5-min Rain = 0
KFR1 140642Z 06003KT 04/M04 A3019 RMK A01 T00361038  RH  058%=      5-min Rain = 0
KFR1 140643Z 06003KT 04/M04 A3019 RMK A01 T00361038  RH  058%=      5-min Rain = 0
KFR1 140644Z 05003KT 04/M04 A3019 RMK A01 T00361038  RH  058%=      5-min Rain = 0
KFR1 140645Z 06003KT 04/M04 A3019 RMK A01 T00351039  RH  058%=      5-min Rain = 0
KFR1 140646Z 05003KT 04/M04 A3019 RMK A01 T00351039  RH  058%=      5-min Rain = 0
KFR1 140647Z 05003KT 03/M04 A3019 RMK A01 T00341040  RH  058%=      5-min Rain = 0
KFR1 140648Z 05003KT 03/M04 A3019 RMK A01 T00341039  RH  059%=      5-min Rain = 0
KFR1 140649Z 07002KT 03/M04 A3019 RMK A01 T00331039  RH  059%=      5-min Rain = 0
KFR1 140650Z 07002KT 03/M04 A3019 RMK A01 T00321039  RH  060%=      5-min Rain = 0
KFR1 140651Z 08002KT 03/M04 A302 RMK A01 T00311040  RH  060%=      5-min Rain = 0
KFR1 140652Z 06002KT 03/M04 A302 RMK A01 T00311040  RH  060%=      5-min Rain = 0
KFR1 140653Z 06002KT 03/M04 A302 RMK A01 T00311039  RH  060%=      5-min Rain = 0
KFR1 140654Z 05002KT 03/M04 A302 RMK A01 T00311039  RH  060%=      5-min Rain = 0
KFR1 140655Z 05002KT 03/M04 A302 RMK A01 T00311039  RH  060%=      5-min Rain = 0
KFR1 140656Z 05002KT 03/M04 A302 RMK A01 T00311039  RH  060%=      5-min Rain = 0
KFR1 140657Z 03002KT 03/M04 A302 RMK A01 T00311039  RH  060%=      5-min Rain = 0
KFR1 140658Z 02001KT 03/M04 A302 RMK A01 T00311039  RH  060%=      5-min Rain = 0
KFR1 140659Z 03002KT 03/M04 A302 RMK A01 T00311039  RH  060%=      5-min Rain = 0
KFR1 140700Z 03001KT 03/M04 A302 RMK A01 T00311039  RH  060%=      5-min Rain = 0
KFR1 140701Z 02002KT 03/M04 A302 RMK A01 T00311039  RH  060%=      5-min Rain = 0
KFR1 140702Z 00002KT 03/M04 A302 RMK A01 T00311038  RH  060%=      5-min Rain = 0
KFR1 140703Z 01001KT 03/M04 A302 RMK A01 T00311038  RH  060%=      5-min Rain = 0
KFR1 140704Z 02001KT 03/M04 A302 RMK A01 T00311037  RH  061%=      5-min Rain = 0
KFR1 140705Z 03001KT 03/M03 A302 RMK A01 T00311034  RH  063%=      5-min Rain = 0
KFR1 140706Z 03001KT 03/M03 A302 RMK A01 T00301033  RH  063%=      5-min Rain = 0
KFR1 140707Z 03002KT 03/M03 A302 RMK A01 T00311032  RH  064%=      5-min Rain = 0
KFR1 140708Z 03001KT 03/M03 A302 RMK A01 T00311031  RH  064%=      5-min Rain = 0
KFR1 140709Z 03001KT 03/M03 A302 RMK A01 T00301032  RH  064%=      5-min Rain = 0
KFR1 140710Z 04002KT 03/M03 A302 RMK A01 T00301032  RH  064%=      5-min Rain = 0
KFR1 140711Z 03002KT 03/M03 A302 RMK A01 T00301032  RH  063%=      5-min Rain = 0
KFR1 140712Z 03002KT 03/M03 A302 RMK A01 T00301031  RH  064%=      5-min Rain = 0
KFR1 140713Z 02002KT 03/M03 A302 RMK A01 T00311030  RH  064%=      5-min Rain = 0
KFR1 140714Z 03002KT 03/M03 A3021 RMK A01 T00301029  RH  065%=      5-min Rain = 0
KFR1 140715Z 02002KT 03/M03 A3021 RMK A01 T00301028  RH  066%=      5-min Rain = 0
KFR1 140716Z 02002KT 03/M03 A3021 RMK A01 T00301027  RH  066%=      5-min Rain = 0
KFR1 140717Z 03002KT 03/M03 A3021 RMK A01 T00301026  RH  067%=      5-min Rain = 0
KFR1 140718Z 02002KT 03/M03 A3021 RMK A01 T00301025  RH  067%=      5-min Rain = 0
KFR1 140719Z 02003KT 03/M02 A3021 RMK A01 T00291024  RH  068%=      5-min Rain = 0
KFR1 140720Z 02003KT 03/M02 A3021 RMK A01 T00301022  RH  069%=      5-min Rain = 0
KFR1 140721Z 03003KT 03/M02 A3021 RMK A01 T00301022  RH  069%=      5-min Rain = 0
KFR1 140722Z 02004KT 03/M02 A3021 RMK A01 T00301022  RH  069%=      5-min Rain = 0
KFR1 140723Z 03003KT 03/M02 A3021 RMK A01 T00291021  RH  069%=      5-min Rain = 0
KFR1 140724Z 04004KT 03/M02 A3021 RMK A01 T00291021  RH  069%=      5-min Rain = 0
KFR1 140725Z 02003KT 03/M02 A3021 RMK A01 T00291021  RH  070%=      5-min Rain = 0
KFR1 140726Z 02004KT 03/M02 A3021 RMK A01 T00281021  RH  070%=      5-min Rain = 0
KFR1 140727Z 03003KT 03/M02 A3021 RMK A01 T00281021  RH  070%=      5-min Rain = 0
KFR1 140728Z 02003KT 03/M02 A3021 RMK A01 T00281022  RH  070%=      5-min Rain = 0
KFR1 140729Z 02002KT 03/M02 A3021 RMK A01 T00271023  RH  070%=      5-min Rain = 0
KFR1 140730Z 02003KT 03/M02 A3021 RMK A01 T00261023  RH  070%=      5-min Rain = 0
KFR1 140731Z 03004KT 03/M02 A3021 RMK A01 T00261023  RH  070%=      5-min Rain = 0
KFR1 140732Z 03003KT 03/M02 A3021 RMK A01 T00261022  RH  070%=      5-min Rain = 0
KFR1 140733Z 03003KT 03/M02 A3021 RMK A01 T00261022  RH  070%=      5-min Rain = 0
KFR1 140734Z 02003KT 03/M02 A3021 RMK A01 T00261022  RH  070%=      5-min Rain = 0
KFR1 140735Z 02003KT 03/M02 A3021 RMK A01 T00271022  RH  071%=      5-min Rain = 0
KFR1 140736Z 01002KT 03/M02 A3021 RMK A01 T00261022  RH  070%=      5-min Rain = 0
KFR1 140737Z 01003KT 03/M02 A3021 RMK A01 T00261023  RH  070%=      5-min Rain = 0
KFR1 140738Z 01002KT 03/M02 A3021 RMK A01 T00261022  RH  070%=      5-min Rain = 0
KFR1 140739Z 36003KT 03/M02 A3021 RMK A01 T00271022  RH  070%=      5-min Rain = 0
KFR1 140740Z 02002KT 03/M02 A3021 RMK A01 T00271022  RH  070%=      5-min Rain = 0
KFR1 140741Z 02002KT 03/M02 A3021 RMK A01 T00271022  RH  070%=      5-min Rain = 0
KFR1 140742Z 01003KT 03/M02 A3021 RMK A01 T00261022  RH  070%=      5-min Rain = 0
KFR1 140743Z 01003KT 03/M02 A3021 RMK A01 T00261021  RH  071%=      5-min Rain = 0
KFR1 140744Z 02003KT 03/M02 A3021 RMK A01 T00261021  RH  071%=      5-min Rain = 0
KFR1 140745Z 03003KT 03/M02 A3021 RMK A01 T00261021  RH  071%=      5-min Rain = 0
KFR1 140746Z 02004KT 03/M02 A3021 RMK A01 T00261021  RH  071%=      5-min Rain = 0
KFR1 140747Z 03004KT 03/M02 A3021 RMK A01 T00261021  RH  071%=      5-min Rain = 0
KFR1 140748Z 03004KT 03/M02 A3021 RMK A01 T00261022  RH  071%=      5-min Rain = 0
KFR1 140749Z 03004KT 03/M02 A3022 RMK A01 T00261023  RH  070%=      5-min Rain = 0
KFR1 140750Z 03004KT 03/M02 A3022 RMK A01 T00251023  RH  071%=      5-min Rain = 0
KFR1 140751Z 03003KT 03/M02 A3022 RMK A01 T00251022  RH  071%=      5-min Rain = 0
KFR1 140752Z 03003KT 03/M02 A3022 RMK A01 T00251022  RH  071%=      5-min Rain = 0
KFR1 140753Z 04004KT 03/M02 A3022 RMK A01 T00251022  RH  071%=      5-min Rain = 0
KFR1 140754Z 03004KT 03/M02 A3022 RMK A01 T00251022  RH  071%=      5-min Rain = 0
KFR1 140755Z 03004KT 03/M02 A3022 RMK A01 T00251022  RH  071%=      5-min Rain = 0
KFR1 140756Z 04004KT 03/M02 A3022 RMK A01 T00251022  RH  071%=      5-min Rain = 0
KFR1 140757Z 03003KT 03/M02 A3022 RMK A01 T00251022  RH  071%=      5-min Rain = 0
KFR1 140758Z 03004KT 03/M02 A3022 RMK A01 T00251022  RH  071%=      5-min Rain = 0
KFR1 140759Z 03004KT 03/M02 A3022 RMK A01 T00261021  RH  071%=      5-min Rain = 0
KFR1 140800Z 04005KT 03/M02 A3022 RMK A01 T00261021  RH  071%=      5-min Rain = 0
KFR1 140801Z 04005KT 03/M02 A3022 RMK A01 T00271021  RH  071%=      5-min Rain = 0
KFR1 140802Z 04004KT 03/M02 A3022 RMK A01 T00271021  RH  070%=      5-min Rain = 0
KFR1 140803Z 04006KT 03/M02 A3022 RMK A01 T00271022  RH  070%=      5-min Rain = 0
KFR1 140804Z 04004KT 03/M02 A3022 RMK A01 T00281023  RH  069%=      5-min Rain = 0
KFR1 140805Z 04004KT 03/M02 A3022 RMK A01 T00281023  RH  069%=      5-min Rain = 0
KFR1 140806Z 04004KT 03/M02 A3022 RMK A01 T00281023  RH  069%=      5-min Rain = 0
KFR1 140807Z 04004KT 03/M02 A3022 RMK A01 T00281023  RH  069%=      5-min Rain = 0
KFR1 140808Z 05004KT 03/M02 A3022 RMK A01 T00281023  RH  069%=      5-min Rain = 0
KFR1 140809Z 05004KT 03/M02 A3022 RMK A01 T00281023  RH  069%=      5-min Rain = 0
KFR1 140810Z 05004KT 03/M02 A3022 RMK A01 T00281023  RH  069%=      5-min Rain = 0
KFR1 140811Z 05004KT 03/M02 A3022 RMK A01 T00281022  RH  069%=      5-min Rain = 0
KFR1 140812Z 05004KT 03/M02 A3022 RMK A01 T00281023  RH  069%=      5-min Rain = 0
KFR1 140813Z 06003KT 03/M02 A3022 RMK A01 T00271023  RH  070%=      5-min Rain = 0
KFR1 140814Z 05003KT 03/M02 A3022 RMK A01 T00271022  RH  070%=      5-min Rain = 0
KFR1 140815Z 06003KT 03/M02 A3022 RMK A01 T00251023  RH  070%=      5-min Rain = 0
KFR1 140816Z 05004KT 02/M02 A3022 RMK A01 T00241024  RH  071%=      5-min Rain = 0
KFR1 140817Z 05004KT 02/M02 A3022 RMK A01 T00241023  RH  071%=      5-min Rain = 0
KFR1 140818Z 05004KT 02/M02 A3022 RMK A01 T00241023  RH  071%=      5-min Rain = 0
KFR1 140819Z 05004KT 02/M02 A3022 RMK A01 T00241023  RH  071%=      5-min Rain = 0
KFR1 140820Z 05004KT 02/M02 A3022 RMK A01 T00241023  RH  071%=      5-min Rain = 0
KFR1 140821Z 04005KT 02/M02 A3022 RMK A01 T00241024  RH  071%=      5-min Rain = 0
KFR1 140822Z 04004KT 02/M02 A3022 RMK A01 T00231024  RH  071%=      5-min Rain = 0
KFR1 140823Z 04004KT 02/M02 A3022 RMK A01 T00231024  RH  071%=      5-min Rain = 0
KFR1 140824Z 04004KT 02/M03 A3022 RMK A01 T00221025  RH  071%=      5-min Rain = 0
KFR1 140825Z 04005KT 02/M02 A3022 RMK A01 T00221024  RH  071%=      5-min Rain = 0
KFR1 140826Z 04005KT 02/M02 A3022 RMK A01 T00221024  RH  071%=      5-min Rain = 0
KFR1 140827Z 04005KT 02/M02 A3022 RMK A01 T00231024  RH  071%=      5-min Rain = 0
KFR1 140828Z 04005KT 02/M02 A3022 RMK A01 T00231024  RH  071%=      5-min Rain = 0
KFR1 140829Z 04005KT 02/M02 A3022 RMK A01 T00231024  RH  071%=      5-min Rain = 0
KFR1 140830Z 04005KT 02/M02 A3022 RMK A01 T00231024  RH  071%=      5-min Rain = 0
KFR1 140831Z 03006KT 02/M02 A3022 RMK A01 T00221024  RH  071%=      5-min Rain = 0
KFR1 140832Z 03006KT 02/M02 A3022 RMK A01 T00221023  RH  072%=      5-min Rain = 0
KFR1 140833Z 03006KT 02/M02 A3022 RMK A01 T00221023  RH  072%=      5-min Rain = 0
KFR1 140834Z 03006KT 02/M02 A3022 RMK A01 T00231022  RH  072%=      5-min Rain = 0
KFR1 140835Z 03006KT 02/M02 A3022 RMK A01 T00241022  RH  072%=      5-min Rain = 0
KFR1 140836Z 03007KT 02/M02 A3022 RMK A01 T00241022  RH  072%=      5-min Rain = 0
KFR1 140837Z 04007KT 02/M02 A3022 RMK A01 T00241023  RH  071%=      5-min Rain = 0
KFR1 140838Z 04005KT 02/M02 A3022 RMK A01 T00241023  RH  071%=      5-min Rain = 0
KFR1 140839Z 04006KT 02/M02 A3022 RMK A01 T00241023  RH  071%=      5-min Rain = 0
KFR1 140840Z 04007KT 02/M02 A3022 RMK A01 T00221024  RH  071%=      5-min Rain = 0
KFR1 140841Z 04007KT 02/M02 A3022 RMK A01 T00221024  RH  072%=      5-min Rain = 0
KFR1 140842Z 05005KT 02/M02 A3022 RMK A01 T00221024  RH  072%=      5-min Rain = 0
KFR1 140843Z 04006KT 02/M02 A3022 RMK A01 T00221024  RH  072%=      5-min Rain = 0
KFR1 140844Z 05006KT 02/M02 A3022 RMK A01 T00221024  RH  072%=      5-min Rain = 0
KFR1 140845Z 04006KT 02/M02 A3022 RMK A01 T00221024  RH  071%=      5-min Rain = 0
KFR1 140846Z 04006KT 02/M02 A3022 RMK A01 T00221024  RH  072%=      5-min Rain = 0
KFR1 140847Z 04006KT 02/M02 A3023 RMK A01 T00211024  RH  072%=      5-min Rain = 0
KFR1 140848Z 04007KT 02/M02 A3023 RMK A01 T00211024  RH  072%=      5-min Rain = 0
KFR1 140849Z 04006KT 02/M02 A3023 RMK A01 T00211024  RH  072%=      5-min Rain = 0
KFR1 140850Z 04006KT 02/M02 A3023 RMK A01 T00221023  RH  072%=      5-min Rain = 0
KFR1 140851Z 04007KT 02/M02 A3023 RMK A01 T00231022  RH  072%=      5-min Rain = 0
KFR1 140852Z 04006KT 02/M02 A3023 RMK A01 T00241022  RH  071%=      5-min Rain = 0
KFR1 140853Z 04005KT 02/M02 A3023 RMK A01 T00241023  RH  071%=      5-min Rain = 0
KFR1 140854Z 05005KT 02/M02 A3023 RMK A01 T00241023  RH  071%=      5-min Rain = 0
KFR1 140855Z 04005KT 02/M02 A3023 RMK A01 T00241024  RH  071%=      5-min Rain = 0
KFR1 140856Z 05005KT 02/M02 A3023 RMK A01 T00241024  RH  071%=      5-min Rain = 0
KFR1 140857Z 05006KT 02/M02 A3023 RMK A01 T00241024  RH  071%=      5-min Rain = 0
KFR1 140858Z 05006KT 02/M02 A3023 RMK A01 T00241024  RH  071%=      5-min Rain = 0
KFR1 140859Z 05006KT 03/M02 A3023 RMK A01 T00251024  RH  070%=      5-min Rain = 0
KFR1 140900Z 05005KT 03/M02 A3023 RMK A01 T00251024  RH  070%=      5-min Rain = 0
KFR1 140901Z 05005KT 03/M02 A3023 RMK A01 T00251024  RH  070%=      5-min Rain = 0
KFR1 140902Z 04005KT 02/M02 A3023 RMK A01 T00241024  RH  070%=      5-min Rain = 0
KFR1 140903Z 04005KT 02/M02 A3023 RMK A01 T00241024  RH  070%=      5-min Rain = 0
KFR1 140904Z 04005KT 02/M03 A3023 RMK A01 T00231025  RH  071%=      5-min Rain = 0
KFR1 140905Z 04005KT 02/M03 A3023 RMK A01 T00231025  RH  071%=      5-min Rain = 0
KFR1 140906Z 04006KT 02/M03 A3023 RMK A01 T00231025  RH  071%=      5-min Rain = 0
KFR1 140907Z 05005KT 02/M03 A3024 RMK A01 T00231025  RH  071%=      5-min Rain = 0
KFR1 140908Z 05005KT 02/M03 A3024 RMK A01 T00231025  RH  070%=      5-min Rain = 0
KFR1 140909Z 05005KT 02/M03 A3024 RMK A01 T00231025  RH  070%=      5-min Rain = 0
KFR1 140910Z 05006KT 02/M03 A3024 RMK A01 T00241025  RH  070%=      5-min Rain = 0
KFR1 140911Z 05005KT 02/M03 A3024 RMK A01 T00241025  RH  070%=      5-min Rain = 0
KFR1 140912Z 04004KT 02/M03 A3024 RMK A01 T00241026  RH  070%=      5-min Rain = 0
KFR1 140913Z 05005KT 02/M03 A3024 RMK A01 T00241026  RH  070%=      5-min Rain = 0
KFR1 140914Z 05005KT 02/M03 A3024 RMK A01 T00231026  RH  070%=      5-min Rain = 0
KFR1 140915Z 04005KT 02/M03 A3024 RMK A01 T00231026  RH  070%=      5-min Rain = 0
KFR1 140916Z 04006KT 02/M03 A3024 RMK A01 T00231026  RH  070%=      5-min Rain = 0
KFR1 140917Z 05005KT 02/M03 A3024 RMK A01 T00231027  RH  070%=      5-min Rain = 0
KFR1 140918Z 05005KT 02/M03 A3024 RMK A01 T00241027  RH  069%=      5-min Rain = 0
KFR1 140919Z 06004KT 02/M03 A3024 RMK A01 T00241027  RH  069%=      5-min Rain = 0
KFR1 140920Z 05004KT 02/M03 A3024 RMK A01 T00241027  RH  069%=      5-min Rain = 0
KFR1 140921Z 05004KT 02/M03 A3024 RMK A01 T00231027  RH  069%=      5-min Rain = 0
KFR1 140922Z 06003KT 02/M03 A3024 RMK A01 T00231027  RH  070%=      5-min Rain = 0
KFR1 140923Z 05004KT 02/M03 A3024 RMK A01 T00211028  RH  070%=      5-min Rain = 0
KFR1 140924Z 06004KT 02/M03 A3024 RMK A01 T00211028  RH  070%=      5-min Rain = 0
KFR1 140925Z 06003KT 02/M03 A3024 RMK A01 T00201028  RH  070%=      5-min Rain = 0
KFR1 140926Z 06004KT 02/M03 A3024 RMK A01 T00191029  RH  070%=      5-min Rain = 0
KFR1 140927Z 06003KT 02/M03 A3024 RMK A01 T00191029  RH  071%=      5-min Rain = 0
KFR1 140928Z 10002KT 02/M03 A3024 RMK A01 T00181030  RH  071%=      5-min Rain = 0
KFR1 140929Z 09002KT 02/M03 A3024 RMK A01 T00171030  RH  071%=      5-min Rain = 0
KFR1 140930Z 08002KT 02/M03 A3024 RMK A01 T00161030  RH  072%=      5-min Rain = 0
KFR1 140931Z 07003KT 02/M03 A3024 RMK A01 T00161030  RH  072%=      5-min Rain = 0
KFR1 140932Z 07003KT 02/M03 A3024 RMK A01 T00161029  RH  072%=      5-min Rain = 0
KFR1 140933Z 06003KT 02/M03 A3024 RMK A01 T00151031  RH  071%=      5-min Rain = 0
KFR1 140934Z 06004KT 02/M03 A3024 RMK A01 T00151031  RH  072%=      5-min Rain = 0
KFR1 140935Z 06004KT 02/M03 A3024 RMK A01 T00151030  RH  072%=      5-min Rain = 0
KFR1 140936Z 07004KT 02/M03 A3024 RMK A01 T00151030  RH  072%=      5-min Rain = 0
KFR1 140937Z 06004KT 02/M03 A3024 RMK A01 T00161029  RH  072%=      5-min Rain = 0
KFR1 140938Z 06004KT 02/M03 A3024 RMK A01 T00161030  RH  071%=      5-min Rain = 0
KFR1 140939Z 06004KT 02/M03 A3024 RMK A01 T00171029  RH  071%=      5-min Rain = 0
KFR1 140940Z 05005KT 02/M03 A3024 RMK A01 T00181029  RH  071%=      5-min Rain = 0
KFR1 140941Z 06004KT 02/M03 A3024 RMK A01 T00181029  RH  071%=      5-min Rain = 0
KFR1 140942Z 06004KT 02/M03 A3024 RMK A01 T00191029  RH  071%=      5-min Rain = 0
KFR1 140943Z 06004KT 02/M03 A3024 RMK A01 T00181030  RH  070%=      5-min Rain = 0
KFR1 140944Z 07003KT 02/M03 A3024 RMK A01 T00181031  RH  070%=      5-min Rain = 0
KFR1 140945Z 07003KT 02/M03 A3024 RMK A01 T00161031  RH  071%=      5-min Rain = 0
KFR1 140946Z 07003KT 02/M03 A3024 RMK A01 T00151032  RH  071%=      5-min Rain = 0
KFR1 140947Z 07003KT 01/M03 A3024 RMK A01 T00141032  RH  071%=      5-min Rain = 0
KFR1 140948Z 06004KT 01/M03 A3024 RMK A01 T00141032  RH  072%=      5-min Rain = 0
KFR1 140949Z 05004KT 01/M03 A3024 RMK A01 T00141031  RH  072%=      5-min Rain = 0
KFR1 140950Z 05004KT 01/M03 A3024 RMK A01 T00141031  RH  072%=      5-min Rain = 0
KFR1 140951Z 04004KT 01/M03 A3024 RMK A01 T00141031  RH  072%=      5-min Rain = 0
KFR1 140952Z 04005KT 01/M03 A3024 RMK A01 T00141030  RH  072%=      5-min Rain = 0
KFR1 140953Z 04005KT 02/M03 A3024 RMK A01 T00151031  RH  072%=      5-min Rain = 0
KFR1 140954Z 05004KT 02/M03 A3024 RMK A01 T00151030  RH  072%=      5-min Rain = 0
KFR1 140955Z 04005KT 02/M03 A3024 RMK A01 T00151030  RH  072%=      5-min Rain = 0
KFR1 140956Z 05005KT 02/M03 A3024 RMK A01 T00161030  RH  072%=      5-min Rain = 0
KFR1 140957Z 05005KT 02/M03 A3024 RMK A01 T00161029  RH  072%=      5-min Rain = 0
KFR1 140958Z 05005KT 02/M03 A3025 RMK A01 T00171029  RH  071%=      5-min Rain = 0
KFR1 140959Z 05005KT 02/M03 A3025 RMK A01 T00171030  RH  071%=      5-min Rain = 0
KFR1 141000Z 05005KT 02/M03 A3025 RMK A01 T00171030  RH  071%=      5-min Rain = 0
KFR1 141001Z 06006KT 02/M03 A3024 RMK A01 T00171030  RH  071%=      5-min Rain = 0
KFR1 141002Z 05006KT 02/M03 A3024 RMK A01 T00171029  RH  071%=      5-min Rain = 0
KFR1 141003Z 05006KT 02/M03 A3024 RMK A01 T00181029  RH  071%=      5-min Rain = 0
KFR1 141004Z 05006KT 02/M03 A3024 RMK A01 T00191029  RH  071%=      5-min Rain = 0
KFR1 141005Z 05006KT 02/M03 A3024 RMK A01 T00191029  RH  071%=      5-min Rain = 0
KFR1 141006Z 05005KT 02/M03 A3024 RMK A01 T00201029  RH  070%=      5-min Rain = 0
KFR1 141007Z 05005KT 02/M03 A3025 RMK A01 T00201029  RH  070%=      5-min Rain = 0
KFR1 141008Z 05006KT 02/M03 A3025 RMK A01 T00191029  RH  070%=      5-min Rain = 0
KFR1 141009Z 05005KT 02/M03 A3025 RMK A01 T00191029  RH  071%=      5-min Rain = 0
KFR1 141010Z 06006KT 02/M03 A3025 RMK A01 T00191029  RH  071%=      5-min Rain = 0
KFR1 141011Z 06005KT 02/M03 A3025 RMK A01 T00191029  RH  071%=      5-min Rain = 0
KFR1 141012Z 06005KT 02/M03 A3025 RMK A01 T00201029  RH  070%=      5-min Rain = 0
KFR1 141013Z 06005KT 02/M03 A3025 RMK A01 T00191029  RH  070%=      5-min Rain = 0
KFR1 141014Z 05005KT 02/M03 A3025 RMK A01 T00191029  RH  070%=      5-min Rain = 0
KFR1 141015Z 06005KT 02/M03 A3025 RMK A01 T00181029  RH  071%=      5-min Rain = 0
KFR1 141016Z 06005KT 02/M03 A3025 RMK A01 T00181030  RH  071%=      5-min Rain = 0
KFR1 141017Z 06005KT 02/M03 A3025 RMK A01 T00171030  RH  071%=      5-min Rain = 0
KFR1 141018Z 06005KT 02/M03 A3025 RMK A01 T00161030  RH  071%=      5-min Rain = 0
KFR1 141019Z 06006KT 02/M03 A3025 RMK A01 T00161030  RH  071%=      5-min Rain = 0
KFR1 141020Z 06006KT 02/M03 A3025 RMK A01 T00161030  RH  072%=      5-min Rain = 0
KFR1 141021Z 05006KT 02/M03 A3025 RMK A01 T00171030  RH  071%=      5-min Rain = 0
KFR1 141022Z 05005KT 02/M03 A3025 RMK A01 T00171030  RH  071%=      5-min Rain = 0
KFR1 141023Z 05005KT 02/M03 A3025 RMK A01 T00171030  RH  071%=      5-min Rain = 0
KFR1 141024Z 05005KT 02/M03 A3025 RMK A01 T00171030  RH  071%=      5-min Rain = 0
KFR1 141025Z 05005KT 02/M03 A3025 RMK A01 T00161031  RH  071%=      5-min Rain = 0
KFR1 141026Z 05004KT 02/M03 A3025 RMK A01 T00151031  RH  071%=      5-min Rain = 0
KFR1 141027Z 05004KT 02/M03 A3025 RMK A01 T00151031  RH  072%=      5-min Rain = 0
KFR1 141028Z 04004KT 01/M03 A3025 RMK A01 T00141031  RH  072%=      5-min Rain = 0
KFR1 141029Z 04005KT 01/M03 A3025 RMK A01 T00141031  RH  072%=      5-min Rain = 0
KFR1 141030Z 04005KT 01/M03 A3025 RMK A01 T00131031  RH  072%=      5-min Rain = 0
KFR1 141031Z 05005KT 01/M03 A3025 RMK A01 T00131031  RH  072%=      5-min Rain = 0
KFR1 141032Z 05005KT 01/M03 A3025 RMK A01 T00141030  RH  072%=      5-min Rain = 0
KFR1 141033Z 05005KT 01/M03 A3025 RMK A01 T00141030  RH  072%=      5-min Rain = 0
KFR1 141034Z 06005KT 02/M03 A3025 RMK A01 T00151030  RH  072%=      5-min Rain = 0
KFR1 141035Z 06004KT 01/M03 A3025 RMK A01 T00141032  RH  072%=      5-min Rain = 0
KFR1 141036Z 05004KT 01/M03 A3025 RMK A01 T00131032  RH  072%=      5-min Rain = 0
KFR1 141037Z 05004KT 01/M03 A3025 RMK A01 T00121032  RH  072%=      5-min Rain = 0
KFR1 141038Z 05004KT 01/M03 A3025 RMK A01 T00131031  RH  073%=      5-min Rain = 0
KFR1 141039Z 04004KT 01/M03 A3025 RMK A01 T00131030  RH  073%=      5-min Rain = 0
KFR1 141040Z 04005KT 01/M03 A3025 RMK A01 T00141030  RH  072%=      5-min Rain = 0
KFR1 141041Z 04004KT 01/M03 A3025 RMK A01 T00141030  RH  072%=      5-min Rain = 0
KFR1 141042Z 05004KT 01/M03 A3025 RMK A01 T00141030  RH  072%=      5-min Rain = 0
KFR1 141043Z 04004KT 01/M03 A3025 RMK A01 T00141030  RH  072%=      5-min Rain = 0
KFR1 141044Z 04004KT 01/M03 A3025 RMK A01 T00141030  RH  072%=      5-min Rain = 0
KFR1 141045Z 04004KT 01/M03 A3026 RMK A01 T00141031  RH  072%=      5-min Rain = 0
KFR1 141046Z 03004KT 01/M03 A3026 RMK A01 T00131031  RH  072%=      5-min Rain = 0
KFR1 141047Z 04005KT 01/M03 A3026 RMK A01 T00131030  RH  073%=      5-min Rain = 0
KFR1 141048Z 04006KT 01/M03 A3026 RMK A01 T00131031  RH  073%=      5-min Rain = 0
KFR1 141049Z 04005KT 01/M03 A3026 RMK A01 T00141030  RH  073%=      5-min Rain = 0
KFR1 141050Z 04005KT 01/M03 A3026 RMK A01 T00141030  RH  073%=      5-min Rain = 0
KFR1 141051Z 03005KT 01/M03 A3026 RMK A01 T00141030  RH  072%=      5-min Rain = 0
KFR1 141052Z 03005KT 01/M03 A3026 RMK A01 T00141030  RH  073%=      5-min Rain = 0
KFR1 141053Z 04006KT 01/M03 A3026 RMK A01 T00141030  RH  073%=      5-min Rain = 0
KFR1 141054Z 04006KT 02/M03 A3026 RMK A01 T00151028  RH  073%=      5-min Rain = 0
KFR1 141055Z 04006KT 02/M03 A3026 RMK A01 T00161028  RH  073%=      5-min Rain = 0
KFR1 141056Z 04005KT 02/M03 A3026 RMK A01 T00161028  RH  073%=      5-min Rain = 0
KFR1 141057Z 04004KT 02/M03 A3026 RMK A01 T00161028  RH  072%=      5-min Rain = 0
KFR1 141058Z 04005KT 02/M03 A3026 RMK A01 T00161028  RH  073%=      5-min Rain = 0
KFR1 141059Z 04005KT 02/M03 A3026 RMK A01 T00161027  RH  073%=      5-min Rain = 0
KFR1 141100Z 05006KT 02/M03 A3026 RMK A01 T00161028  RH  073%=      5-min Rain = 0
KFR1 141101Z 05004KT 02/M03 A3026 RMK A01 T00171027  RH  072%=      5-min Rain = 0
KFR1 141102Z 04005KT 02/M03 A3026 RMK A01 T00171027  RH  072%=      5-min Rain = 0
KFR1 141103Z 04004KT 02/M03 A3026 RMK A01 T00171027  RH  072%=      5-min Rain = 0
KFR1 141104Z 04004KT 02/M03 A3026 RMK A01 T00181027  RH  072%=      5-min Rain = 0
KFR1 141105Z 04004KT 02/M03 A3026 RMK A01 T00171028  RH  072%=      5-min Rain = 0
KFR1 141106Z 04004KT 02/M03 A3026 RMK A01 T00171028  RH  072%=      5-min Rain = 0
KFR1 141107Z 05004KT 02/M03 A3026 RMK A01 T00161029  RH  072%=      5-min Rain = 0
KFR1 141108Z 05004KT 02/M03 A3026 RMK A01 T00161029  RH  072%=      5-min Rain = 0
KFR1 141109Z 05004KT 02/M03 A3026 RMK A01 T00161028  RH  072%=      5-min Rain = 0
KFR1 141110Z 05005KT 02/M03 A3026 RMK A01 T00161028  RH  072%=      5-min Rain = 0
KFR1 141111Z 05004KT 02/M03 A3027 RMK A01 T00161029  RH  072%=      5-min Rain = 0
KFR1 141112Z 06004KT 02/M03 A3027 RMK A01 T00151030  RH  072%=      5-min Rain = 0
KFR1 141113Z 06004KT 01/M03 A3027 RMK A01 T00141030  RH  072%=      5-min Rain = 0
KFR1 141114Z 06004KT 01/M03 A3027 RMK A01 T00141031  RH  072%=      5-min Rain = 0
KFR1 141115Z 06004KT 01/M03 A3027 RMK A01 T00131031  RH  072%=      5-min Rain = 0
KFR1 141116Z 06005KT 01/M03 A3027 RMK A01 T00111032  RH  073%=      5-min Rain = 0
KFR1 141117Z 07004KT 01/M03 A3027 RMK A01 T00101032  RH  073%=      5-min Rain = 0
KFR1 141118Z 08003KT 01/M03 A3027 RMK A01 T00101032  RH  074%=      5-min Rain = 0
KFR1 141119Z 09004KT 01/M03 A3027 RMK A01 T00101031  RH  074%=      5-min Rain = 0
KFR1 141120Z 09003KT 01/M03 A3027 RMK A01 T00101031  RH  074%=      5-min Rain = 0
KFR1 141121Z 09003KT 01/M03 A3027 RMK A01 T00101031  RH  074%=      5-min Rain = 0
KFR1 141122Z 07004KT 01/M03 A3027 RMK A01 T00091031  RH  074%=      5-min Rain = 0
KFR1 141123Z 06003KT 01/M03 A3027 RMK A01 T00091031  RH  074%=      5-min Rain = 0
KFR1 141124Z 06004KT 01/M03 A3027 RMK A01 T00081032  RH  074%=      5-min Rain = 0
KFR1 141125Z 06006KT 01/M03 A3027 RMK A01 T00081032  RH  075%=      5-min Rain = 0
KFR1 141126Z 06005KT 01/M03 A3027 RMK A01 T00101030  RH  075%=      5-min Rain = 0
KFR1 141127Z 06005KT 01/M03 A3027 RMK A01 T00111029  RH  074%=      5-min Rain = 0
KFR1 141128Z 05006KT 01/M03 A3027 RMK A01 T00121029  RH  074%=      5-min Rain = 0
KFR1 141129Z 05005KT 01/M03 A3027 RMK A01 T00131029  RH  074%=      5-min Rain = 0
KFR1 141130Z 06005KT 01/M03 A3027 RMK A01 T00131030  RH  073%=      5-min Rain = 0
KFR1 141131Z 06004KT 01/M03 A3027 RMK A01 T00131030  RH  073%=      5-min Rain = 0
KFR1 141132Z 06005KT 01/M03 A3027 RMK A01 T00121031  RH  073%=      5-min Rain = 0
KFR1 141133Z 06004KT 01/M03 A3028 RMK A01 T00111031  RH  073%=      5-min Rain = 0
KFR1 141134Z 06004KT 01/M03 A3028 RMK A01 T00101032  RH  074%=      5-min Rain = 0
KFR1 141135Z 06004KT 01/M03 A3028 RMK A01 T00091032  RH  074%=      5-min Rain = 0
KFR1 141136Z 06004KT 01/M03 A3028 RMK A01 T00091032  RH  074%=      5-min Rain = 0
KFR1 141137Z 06004KT 01/M03 A3028 RMK A01 T00081032  RH  074%=      5-min Rain = 0
KFR1 141138Z 06004KT 01/M03 A3028 RMK A01 T00081031  RH  075%=      5-min Rain = 0
KFR1 141139Z 06004KT 01/M03 A3028 RMK A01 T00081030  RH  075%=      5-min Rain = 0
KFR1 141140Z 05004KT 01/M03 A3028 RMK A01 T00091030  RH  075%=      5-min Rain = 0
KFR1 141141Z 05003KT 01/M03 A3028 RMK A01 T00091030  RH  075%=      5-min Rain = 0
KFR1 141142Z 05003KT 01/M03 A3028 RMK A01 T00101029  RH  075%=      5-min Rain = 0
KFR1 141143Z 03001KT 01/M03 A3028 RMK A01 T00101030  RH  074%=      5-min Rain = 0
KFR1 141144Z 36001KT 01/M03 A3028 RMK A01 T00101031  RH  074%=      5-min Rain = 0
KFR1 141145Z 01002KT 01/M03 A3028 RMK A01 T00091031  RH  075%=      5-min Rain = 0
KFR1 141146Z 03003KT 01/M03 A3028 RMK A01 T00091030  RH  075%=      5-min Rain = 0
KFR1 141147Z 03003KT 01/M03 A3028 RMK A01 T00091030  RH  075%=      5-min Rain = 0
KFR1 141148Z 03002KT 01/M03 A3028 RMK A01 T00081030  RH  075%=      5-min Rain = 0
KFR1 141149Z 03002KT 01/M03 A3028 RMK A01 T00081030  RH  075%=      5-min Rain = 0
KFR1 141150Z 03001KT 01/M03 A3028 RMK A01 T00081031  RH  075%=      5-min Rain = 0
KFR1 141151Z 04002KT 01/M03 A3028 RMK A01 T00081030  RH  075%=      5-min Rain = 0
KFR1 141152Z 04002KT 01/M03 A3028 RMK A01 T00081030  RH  076%=      5-min Rain = 0
KFR1 141153Z 04002KT 01/M03 A3028 RMK A01 T00081030  RH  076%=      5-min Rain = 0
KFR1 141154Z 03002KT 01/M03 A3028 RMK A01 T00091029  RH  076%=      5-min Rain = 0
KFR1 141155Z 03001KT 01/M03 A3028 RMK A01 T00091030  RH  075%=      5-min Rain = 0
KFR1 141156Z 03002KT 01/M03 A3029 RMK A01 T00091029  RH  075%=      5-min Rain = 0
KFR1 141157Z 04002KT 01/M03 A3029 RMK A01 T00101028  RH  076%=      5-min Rain = 0
KFR1 141158Z 04002KT 01/M03 A3029 RMK A01 T00111028  RH  076%=      5-min Rain = 0
KFR1 141159Z 03002KT 01/M03 A3029 RMK A01 T00111027  RH  075%=      5-min Rain = 0
KFR1 141200Z 04002KT 01/M03 A3029 RMK A01 T00111028  RH  075%=      5-min Rain = 0
KFR1 141201Z 04001KT 01/M03 A3029 RMK A01 T00111028  RH  075%=      5-min Rain = 0
KFR1 141202Z 03001KT 01/M03 A3029 RMK A01 T00111028  RH  075%=      5-min Rain = 0
KFR1 141203Z 02002KT 01/M03 A3029 RMK A01 T00111028  RH  075%=      5-min Rain = 0
KFR1 141204Z 03001KT 01/M03 A3029 RMK A01 T00111028  RH  075%=      5-min Rain = 0
KFR1 141205Z 04001KT 01/M03 A3029 RMK A01 T00101030  RH  075%=      5-min Rain = 0
KFR1 141206Z 04000KT 01/M03 A3029 RMK A01 T00091030  RH  075%=      5-min Rain = 0
KFR1 141207Z 33001KT 01/M03 A3029 RMK A01 T00091029  RH  076%=      5-min Rain = 0
KFR1 141208Z 32002KT 01/M03 A3029 RMK A01 T00091028  RH  077%=      5-min Rain = 0
KFR1 141209Z 32002KT 01/M03 A3029 RMK A01 T00081028  RH  077%=      5-min Rain = 0
KFR1 141210Z 33002KT 01/M03 A3029 RMK A01 T00081027  RH  078%=      5-min Rain = 0
KFR1 141211Z 32002KT 01/M03 A303 RMK A01 T00081025  RH  078%=      5-min Rain = 0
KFR1 141212Z 31001KT 01/M02 A303 RMK A01 T00081024  RH  079%=      5-min Rain = 0
KFR1 141213Z 31001KT 01/M02 A303 RMK A01 T00081024  RH  079%=      5-min Rain = 0
KFR1 141214Z 31001KT 01/M02 A303 RMK A01 T00071023  RH  080%=      5-min Rain = 0
KFR1 141215Z 31002KT 01/M02 A303 RMK A01 T00071022  RH  081%=      5-min Rain = 0
KFR1 141216Z 33002KT 01/M02 A303 RMK A01 T00071021  RH  082%=      5-min Rain = 0
KFR1 141217Z 32002KT 01/M02 A303 RMK A01 T00071019  RH  083%=      5-min Rain = 0
KFR1 141218Z 31002KT 01/M02 A303 RMK A01 T00071018  RH  083%=      5-min Rain = 0
KFR1 141219Z 29002KT 01/M02 A303 RMK A01 T00071018  RH  083%=      5-min Rain = 0
KFR1 141220Z 29002KT 01/M02 A303 RMK A01 T00071019  RH  083%=      5-min Rain = 0
KFR1 141221Z 28002KT 01/M02 A303 RMK A01 T00081018  RH  083%=      5-min Rain = 0
KFR1 141222Z 28002KT 01/M02 A303 RMK A01 T00071019  RH  083%=      5-min Rain = 0
KFR1 141223Z 29002KT 01/M02 A303 RMK A01 T00061020  RH  083%=      5-min Rain = 0
KFR1 141224Z 30002KT 01/M02 A303 RMK A01 T00061021  RH  083%=      5-min Rain = 0
KFR1 141225Z 33002KT 01/M02 A303 RMK A01 T00061021  RH  083%=      5-min Rain = 0
KFR1 141226Z 33001KT 01/M02 A303 RMK A01 T00051021  RH  083%=      5-min Rain = 0
KFR1 141227Z 33001KT 01/M02 A303 RMK A01 T00051020  RH  083%=      5-min Rain = 0
KFR1 141228Z 32002KT 00/M02 A303 RMK A01 T00041020  RH  084%=      5-min Rain = 0
KFR1 141229Z 32002KT 00/M02 A303 RMK A01 T00041020  RH  084%=      5-min Rain = 0
KFR1 141230Z 32001KT 00/M02 A303 RMK A01 T00041019  RH  085%=      5-min Rain = 0
KFR1 141231Z 32002KT 00/M02 A303 RMK A01 T00041018  RH  085%=      5-min Rain = 0
KFR1 141232Z 33002KT 00/M02 A3031 RMK A01 T00041017  RH  086%=      5-min Rain = 0
KFR1 141233Z 34001KT 01/M02 A3031 RMK A01 T00051017  RH  086%=      5-min Rain = 0
KFR1 141234Z 34002KT 01/M02 A3031 RMK A01 T00051017  RH  085%=      5-min Rain = 0
KFR1 141235Z 34002KT 01/M02 A3031 RMK A01 T00051017  RH  085%=      5-min Rain = 0
KFR1 141236Z 36002KT 01/M02 A3031 RMK A01 T00061016  RH  085%=      5-min Rain = 0
KFR1 141237Z 34002KT 01/M02 A3031 RMK A01 T00061016  RH  085%=      5-min Rain = 0
KFR1 141238Z 34002KT 01/M02 A3031 RMK A01 T00061017  RH  084%=      5-min Rain = 0
KFR1 141239Z 33002KT 01/M02 A3031 RMK A01 T00061017  RH  084%=      5-min Rain = 0
KFR1 141240Z 31002KT 01/M02 A3031 RMK A01 T00061017  RH  085%=      5-min Rain = 0
KFR1 141241Z 32002KT 01/M02 A3031 RMK A01 T00071017  RH  084%=      5-min Rain = 0
KFR1 141242Z 33002KT 01/M02 A3031 RMK A01 T00071017  RH  084%=      5-min Rain = 0
KFR1 141243Z 32001KT 01/M02 A3031 RMK A01 T00071016  RH  084%=      5-min Rain = 0
KFR1 141244Z 31001KT 01/M02 A3031 RMK A01 T00071016  RH  084%=      5-min Rain = 0
KFR1 141245Z 32002KT 01/M02 A3031 RMK A01 T00081016  RH  084%=      5-min Rain = 0
KFR1 141246Z 33002KT 01/M02 A3031 RMK A01 T00081016  RH  084%=      5-min Rain = 0
KFR1 141247Z 34002KT 01/M02 A3031 RMK A01 T00081017  RH  084%=      5-min Rain = 0
KFR1 141248Z 35003KT 01/M02 A3032 RMK A01 T00081017  RH  083%=      5-min Rain = 0
KFR1 141249Z 34003KT 01/M02 A3032 RMK A01 T00081016  RH  084%=      5-min Rain = 0
KFR1 141250Z 34003KT 01/M02 A3032 RMK A01 T00091016  RH  084%=      5-min Rain = 0
KFR1 141251Z 35003KT 01/M02 A3032 RMK A01 T00091016  RH  083%=      5-min Rain = 0
KFR1 141252Z 35003KT 01/M02 A3032 RMK A01 T00091018  RH  083%=      5-min Rain = 0
KFR1 141253Z 35002KT 01/M02 A3032 RMK A01 T00081018  RH  083%=      5-min Rain = 0
KFR1 141254Z 34002KT 01/M02 A3032 RMK A01 T00081018  RH  083%=      5-min Rain = 0
KFR1 141255Z 33002KT 01/M02 A3032 RMK A01 T00081018  RH  083%=      5-min Rain = 0
KFR1 141256Z 32002KT 01/M02 A3032 RMK A01 T00081018  RH  083%=      5-min Rain = 0
KFR1 141257Z 34002KT 01/M02 A3032 RMK A01 T00071018  RH  083%=      5-min Rain = 0
KFR1 141258Z 33001KT 01/M02 A3032 RMK A01 T00071019  RH  083%=      5-min Rain = 0
KFR1 141259Z 34002KT 01/M02 A3032 RMK A01 T00071018  RH  083%=      5-min Rain = 0
KFR1 141300Z 33002KT 01/M02 A3032 RMK A01 T00071018  RH  083%=      5-min Rain = 0
KFR1 141301Z 34001KT 01/M02 A3032 RMK A01 T00061019  RH  083%=      5-min Rain = 0
KFR1 141302Z 34001KT 01/M02 A3032 RMK A01 T00061019  RH  083%=      5-min Rain = 0
KFR1 141303Z 33002KT 01/M02 A3032 RMK A01 T00051020  RH  083%=      5-min Rain = 0
KFR1 141304Z 34003KT 01/M02 A3032 RMK A01 T00061019  RH  084%=      5-min Rain = 0
KFR1 141305Z 35002KT 01/M02 A3032 RMK A01 T00061018  RH  084%=      5-min Rain = 0
KFR1 141306Z 34002KT 01/M02 A3032 RMK A01 T00061018  RH  084%=      5-min Rain = 0
KFR1 141307Z 35002KT 01/M02 A3032 RMK A01 T00061018  RH  084%=      5-min Rain = 0
KFR1 141308Z 36003KT 01/M02 A3033 RMK A01 T00071018  RH  084%=      5-min Rain = 0
KFR1 141309Z 36003KT 01/M02 A3033 RMK A01 T00081018  RH  083%=      5-min Rain = 0
KFR1 141310Z 00003KT 01/M02 A3033 RMK A01 T00081019  RH  083%=      5-min Rain = 0
KFR1 141311Z 36003KT 01/M02 A3033 RMK A01 T00071019  RH  082%=      5-min Rain = 0
KFR1 141312Z 35003KT 01/M02 A3033 RMK A01 T00071020  RH  082%=      5-min Rain = 0
KFR1 141313Z 36004KT 01/M02 A3033 RMK A01 T00071020  RH  083%=      5-min Rain = 0
KFR1 141314Z 35003KT 01/M02 A3033 RMK A01 T00071020  RH  083%=      5-min Rain = 0
KFR1 141315Z 36004KT 01/M02 A3033 RMK A01 T00061020  RH  083%=      5-min Rain = 0
KFR1 141316Z 36003KT 01/M02 A3033 RMK A01 T00061020  RH  083%=      5-min Rain = 0
KFR1 141317Z 35003KT 01/M02 A3033 RMK A01 T00061020  RH  083%=      5-min Rain = 0
KFR1 141318Z 35003KT 01/M02 A3033 RMK A01 T00061020  RH  083%=      5-min Rain = 0
KFR1 141319Z 35002KT 01/M02 A3034 RMK A01 T00061020  RH  083%=      5-min Rain = 0
KFR1 141320Z 36003KT 01/M02 A3034 RMK A01 T00061020  RH  083%=      5-min Rain = 0
KFR1 141321Z 35002KT 01/M02 A3034 RMK A01 T00061020  RH  083%=      5-min Rain = 0
KFR1 141322Z 35002KT 01/M02 A3034 RMK A01 T00061020  RH  083%=      5-min Rain = 0
KFR1 141323Z 34002KT 01/M02 A3034 RMK A01 T00061020  RH  083%=      5-min Rain = 0
KFR1 141324Z 34003KT 01/M02 A3034 RMK A01 T00051020  RH  083%=      5-min Rain = 0
KFR1 141325Z 34003KT 01/M02 A3034 RMK A01 T00051020  RH  083%=      5-min Rain = 0
KFR1 141326Z 33002KT 01/M02 A3034 RMK A01 T00051021  RH  083%=      5-min Rain = 0
KFR1 141327Z 34003KT 01/M02 A3034 RMK A01 T00051020  RH  083%=      5-min Rain = 0
KFR1 141328Z 34004KT 01/M02 A3034 RMK A01 T00051020  RH  083%=      5-min Rain = 0
KFR1 141329Z 34003KT 01/M02 A3034 RMK A01 T00051020  RH  084%=      5-min Rain = 0
KFR1 141330Z 33003KT 01/M02 A3034 RMK A01 T00051019  RH  084%=      5-min Rain = 0
KFR1 141331Z 33003KT 01/M02 A3034 RMK A01 T00051020  RH  083%=      5-min Rain = 0
KFR1 141332Z 34003KT 01/M02 A3034 RMK A01 T00051020  RH  083%=      5-min Rain = 0
KFR1 141333Z 35004KT 01/M02 A3034 RMK A01 T00051021  RH  083%=      5-min Rain = 0
KFR1 141334Z 35004KT 00/M02 A3035 RMK A01 T00041022  RH  083%=      5-min Rain = 0
KFR1 141335Z 36004KT 00/M02 A3035 RMK A01 T00041023  RH  082%=      5-min Rain = 0
KFR1 141336Z 35004KT 00/M02 A3035 RMK A01 T00031024  RH  082%=      5-min Rain = 0
KFR1 141337Z 35003KT 00/M02 A3035 RMK A01 T00031024  RH  082%=      5-min Rain = 0
KFR1 141338Z 35003KT 00/M02 A3035 RMK A01 T00021024  RH  083%=      5-min Rain = 0
KFR1 141339Z 34003KT 00/M02 A3035 RMK A01 T00021024  RH  083%=      5-min Rain = 0
KFR1 141340Z 34003KT 00/M02 A3035 RMK A01 T00021024  RH  083%=      5-min Rain = 0
KFR1 141341Z 34002KT 00/M02 A3035 RMK A01 T00021024  RH  083%=      5-min Rain = 0
KFR1 141342Z 35003KT 00/M02 A3035 RMK A01 T00021024  RH  083%=      5-min Rain = 0
KFR1 141343Z 33003KT 00/M02 A3035 RMK A01 T00011024  RH  083%=      5-min Rain = 0
KFR1 141344Z 32004KT 00/M03 A3035 RMK A01 T00011025  RH  083%=      5-min Rain = 0
KFR1 141345Z 32004KT 00/M02 A3035 RMK A01 T00011024  RH  083%=      5-min Rain = 0
KFR1 141346Z 33003KT 00/M02 A3035 RMK A01 T00021023  RH  083%=      5-min Rain = 0
KFR1 141347Z 33004KT 00/M02 A3036 RMK A01 T00021023  RH  083%=      5-min Rain = 0
KFR1 141348Z 32004KT 00/M02 A3036 RMK A01 T00021023  RH  083%=      5-min Rain = 0
KFR1 141349Z 31003KT 00/M02 A3035 RMK A01 T00011023  RH  084%=      5-min Rain = 0
KFR1 141350Z 31002KT 00/M02 A3035 RMK A01 T00011023  RH  084%=      5-min Rain = 0
KFR1 141351Z 28001KT 00/M02 A3035 RMK A01 T00021023  RH  084%=      5-min Rain = 0
KFR1 141352Z 29002KT 00/M02 A3035 RMK A01 T00021023  RH  083%=      5-min Rain = 0
KFR1 141353Z 31003KT 00/M02 A3035 RMK A01 T00021024  RH  083%=      5-min Rain = 0
KFR1 141354Z 30003KT 00/M02 A3035 RMK A01 T00021023  RH  083%=      5-min Rain = 0
KFR1 141355Z 32003KT 00/M02 A3035 RMK A01 T00021023  RH  083%=      5-min Rain = 0
KFR1 141356Z 32003KT 00/M02 A3035 RMK A01 T00021023  RH  083%=      5-min Rain = 0
KFR1 141357Z 31003KT 00/M02 A3036 RMK A01 T00021023  RH  083%=      5-min Rain = 0
KFR1 141358Z 32003KT 00/M02 A3036 RMK A01 T00021023  RH  083%=      5-min Rain = 0
KFR1 141359Z 33003KT 00/M02 A3036 RMK A01 T00021023  RH  083%=      5-min Rain = 0
KFR1 141400Z 33003KT 00/M02 A3036 RMK A01 T00021023  RH  083%=      5-min Rain = 0
KFR1 141401Z 33003KT 00/M02 A3036 RMK A01 T00021023  RH  083%=      5-min Rain = 0
KFR1 141402Z 33003KT 00/M02 A3036 RMK A01 T00021023  RH  083%=      5-min Rain = 0
KFR1 141403Z 33003KT 00/M02 A3036 RMK A01 T00021023  RH  083%=      5-min Rain = 0
KFR1 141404Z 34002KT 00/M02 A3036 RMK A01 T00021022  RH  083%=      5-min Rain = 0
KFR1 141405Z 33003KT 00/M02 A3036 RMK A01 T00031022  RH  083%=      5-min Rain = 0
KFR1 141406Z 32003KT 00/M02 A3036 RMK A01 T00021022  RH  084%=      5-min Rain = 0
KFR1 141407Z 33003KT 00/M02 A3036 RMK A01 T00031022  RH  084%=      5-min Rain = 0
KFR1 141408Z 32003KT 00/M02 A3036 RMK A01 T00031022  RH  084%=      5-min Rain = 0
KFR1 141409Z 33003KT 00/M02 A3036 RMK A01 T00031022  RH  083%=      5-min Rain = 0
KFR1 141410Z 34003KT 00/M02 A3037 RMK A01 T00031022  RH  083%=      5-min Rain = 0
KFR1 141411Z 33003KT 00/M02 A3037 RMK A01 T00041022  RH  083%=      5-min Rain = 0
KFR1 141412Z 33004KT 00/M02 A3037 RMK A01 T00041022  RH  083%=      5-min Rain = 0
KFR1 141413Z 33004KT 00/M02 A3037 RMK A01 T00041022  RH  082%=      5-min Rain = 0
KFR1 141414Z 33004KT 01/M02 A3037 RMK A01 T00051022  RH  082%=      5-min Rain = 0
KFR1 141415Z 33005KT 01/M02 A3037 RMK A01 T00051022  RH  082%=      5-min Rain = 0
KFR1 141416Z 33004KT 01/M02 A3037 RMK A01 T00051022  RH  082%=      5-min Rain = 0
KFR1 141417Z 33004KT 01/M02 A3037 RMK A01 T00051021  RH  082%=      5-min Rain = 0
KFR1 141418Z 34003KT 01/M02 A3037 RMK A01 T00061021  RH  082%=      5-min Rain = 0
KFR1 141419Z 33004KT 01/M02 A3037 RMK A01 T00061021  RH  082%=      5-min Rain = 0
KFR1 141420Z 34004KT 01/M02 A3037 RMK A01 T00071021  RH  082%=      5-min Rain = 0
KFR1 141421Z 33004KT 01/M02 A3037 RMK A01 T00061022  RH  081%=      5-min Rain = 0
KFR1 141422Z 33003KT 01/M02 A3037 RMK A01 T00071023  RH  081%=      5-min Rain = 0
KFR1 141423Z 33004KT 01/M02 A3037 RMK A01 T00061023  RH  081%=      5-min Rain = 0
KFR1 141424Z 34004KT 01/M02 A3037 RMK A01 T00071022  RH  081%=      5-min Rain = 0
KFR1 141425Z 33004KT 01/M02 A3037 RMK A01 T00081021  RH  081%=      5-min Rain = 0
KFR1 141426Z 34004KT 01/M02 A3037 RMK A01 T00081022  RH  080%=      5-min Rain = 0
KFR1 141427Z 34003KT 01/M02 A3037 RMK A01 T00081023  RH  080%=      5-min Rain = 0
KFR1 141428Z 34004KT 01/M02 A3037 RMK A01 T00091022  RH  080%=      5-min Rain = 0
KFR1 141429Z 33003KT 01/M02 A3037 RMK A01 T00091022  RH  080%=      5-min Rain = 0
KFR1 141430Z 33003KT 01/M02 A3037 RMK A01 T00091023  RH  079%=      5-min Rain = 0
KFR1 141431Z 33003KT 01/M02 A3037 RMK A01 T00091023  RH  079%=      5-min Rain = 0
KFR1 141432Z 34003KT 01/M02 A3037 RMK A01 T00091024  RH  079%=      5-min Rain = 0
KFR1 141433Z 33003KT 01/M02 A3038 RMK A01 T00101022  RH  079%=      5-min Rain = 0
KFR1 141434Z 34003KT 01/M02 A3038 RMK A01 T00101022  RH  079%=      5-min Rain = 0
KFR1 141435Z 35003KT 01/M02 A3038 RMK A01 T00101023  RH  079%=      5-min Rain = 0
KFR1 141436Z 34003KT 01/M02 A3038 RMK A01 T00111021  RH  079%=      5-min Rain = 0
KFR1 141437Z 33004KT 01/M02 A3038 RMK A01 T00121021  RH  079%=      5-min Rain = 0
KFR1 141438Z 35003KT 01/M02 A3038 RMK A01 T00121022  RH  078%=      5-min Rain = 0
KFR1 141439Z 00003KT 01/M02 A3038 RMK A01 T00131021  RH  078%=      5-min Rain = 0
KFR1 141440Z 01003KT 01/M02 A3038 RMK A01 T00131022  RH  077%=      5-min Rain = 0
KFR1 141441Z 01003KT 01/M02 A3038 RMK A01 T00141022  RH  077%=      5-min Rain = 0
KFR1 141442Z 34003KT 01/M02 A3038 RMK A01 T00141022  RH  077%=      5-min Rain = 0
KFR1 141443Z 34003KT 01/M02 A3038 RMK A01 T00141022  RH  077%=      5-min Rain = 0
KFR1 141444Z 01003KT 02/M02 A3038 RMK A01 T00151022  RH  076%=      5-min Rain = 0
KFR1 141445Z 01002KT 02/M02 A3038 RMK A01 T00151023  RH  076%=      5-min Rain = 0
KFR1 141446Z 35002KT 01/M02 A3038 RMK A01 T00141023  RH  076%=      5-min Rain = 0
KFR1 141447Z 36002KT 01/M02 A3038 RMK A01 T00141023  RH  076%=      5-min Rain = 0
KFR1 141448Z 35003KT 02/M02 A3038 RMK A01 T00151023  RH  076%=      5-min Rain = 0
KFR1 141449Z 01003KT 02/M02 A3039 RMK A01 T00151023  RH  076%=      5-min Rain = 0
KFR1 141450Z 01003KT 02/M02 A3039 RMK A01 T00151021  RH  077%=      5-min Rain = 0
KFR1 141451Z 01003KT 02/M02 A3039 RMK A01 T00151023  RH  076%=      5-min Rain = 0
KFR1 141452Z 00002KT 02/M02 A3039 RMK A01 T00151023  RH  076%=      5-min Rain = 0
KFR1 141453Z 01003KT 02/M02 A3039 RMK A01 T00151023  RH  076%=      5-min Rain = 0
KFR1 141454Z 02003KT 02/M02 A3039 RMK A01 T00161022  RH  076%=      5-min Rain = 0
KFR1 141455Z 00003KT 02/M02 A3039 RMK A01 T00161023  RH  075%=      5-min Rain = 0
KFR1 141456Z 01003KT 02/M02 A3039 RMK A01 T00161022  RH  076%=      5-min Rain = 0
KFR1 141457Z 02004KT 02/M02 A3039 RMK A01 T00161022  RH  076%=      5-min Rain = 0
KFR1 141458Z 01004KT 02/M02 A3039 RMK A01 T00161023  RH  075%=      5-min Rain = 0
KFR1 141459Z 01004KT 02/M02 A3039 RMK A01 T00161023  RH  075%=      5-min Rain = 0
KFR1 141500Z 00003KT 02/M02 A3039 RMK A01 T00171023  RH  075%=      5-min Rain = 0
KFR1 141501Z 01003KT 02/M02 A3039 RMK A01 T00171022  RH  076%=      5-min Rain = 0
KFR1 141502Z 35002KT 02/M02 A3039 RMK A01 T00181021  RH  076%=      5-min Rain = 0
KFR1 141503Z 00003KT 02/M02 A3039 RMK A01 T00181022  RH  075%=      5-min Rain = 0
KFR1 141504Z 01003KT 02/M02 A3039 RMK A01 T00181022  RH  075%=      5-min Rain = 0
KFR1 141505Z 35002KT 02/M02 A3039 RMK A01 T00191022  RH  074%=      5-min Rain = 0
KFR1 141506Z 36001KT 02/M02 A3039 RMK A01 T00181023  RH  074%=      5-min Rain = 0
KFR1 141507Z 03002KT 02/M02 A3039 RMK A01 T00181022  RH  075%=      5-min Rain = 0
KFR1 141508Z 02002KT 02/M02 A3039 RMK A01 T00191021  RH  075%=      5-min Rain = 0
KFR1 141509Z 02002KT 02/M02 A3039 RMK A01 T00201021  RH  075%=      5-min Rain = 0
KFR1 141510Z 02002KT 02/M02 A3039 RMK A01 T00211021  RH  074%=      5-min Rain = 0
KFR1 141511Z 02002KT 02/M02 A304 RMK A01 T00211023  RH  073%=      5-min Rain = 0
KFR1 141512Z 02002KT 02/M02 A304 RMK A01 T00211023  RH  072%=      5-min Rain = 0
KFR1 141513Z 00002KT 02/M02 A304 RMK A01 T00211024  RH  072%=      5-min Rain = 0
KFR1 141514Z 01001KT 02/M03 A304 RMK A01 T00211025  RH  072%=      5-min Rain = 0
KFR1 141515Z 01000KT 02/M02 A3039 RMK A01 T00211024  RH  072%=      5-min Rain = 0
KFR1 141516Z 00000KT 02/M02 A3039 RMK A01 T00221024  RH  072%=      5-min Rain = 0
KFR1 141517Z 01000KT 03/M02 A304 RMK A01 T00251022  RH  071%=      5-min Rain = 0
KFR1 141518Z 30000KT 03/M02 A304 RMK A01 T00281020  RH  071%=      5-min Rain = 0
KFR1 141519Z 31002KT 03/M02 A304 RMK A01 T00281021  RH  070%=      5-min Rain = 0
KFR1 141520Z 32001KT 03/M02 A304 RMK A01 T00281022  RH  070%=      5-min Rain = 0
KFR1 141521Z 32002KT 03/M02 A304 RMK A01 T00281021  RH  070%=      5-min Rain = 0
KFR1 141522Z 33002KT 03/M02 A304 RMK A01 T00281021  RH  070%=      5-min Rain = 0
KFR1 141523Z 33001KT 03/M02 A304 RMK A01 T00281022  RH  069%=      5-min Rain = 0
KFR1 141524Z 36001KT 03/M02 A304 RMK A01 T00281022  RH  069%=      5-min Rain = 0
KFR1 141525Z 31001KT 03/M02 A304 RMK A01 T00291022  RH  069%=      5-min Rain = 0
KFR1 141526Z 01002KT 03/M02 A304 RMK A01 T00321018  RH  070%=      5-min Rain = 0
KFR1 141527Z 02002KT 03/M02 A304 RMK A01 T00341018  RH  069%=      5-min Rain = 0
KFR1 141528Z 00002KT 04/M02 A304 RMK A01 T00351019  RH  068%=      5-min Rain = 0
KFR1 141529Z 03001KT 03/M02 A304 RMK A01 T00341021  RH  067%=      5-min Rain = 0
KFR1 141530Z 02003KT 03/M02 A304 RMK A01 T00341021  RH  067%=      5-min Rain = 0
KFR1 141531Z 03002KT 03/M02 A304 RMK A01 T00341021  RH  067%=      5-min Rain = 0
KFR1 141532Z 04002KT 03/M02 A304 RMK A01 T00341020  RH  068%=      5-min Rain = 0
KFR1 141533Z 03003KT 03/M02 A304 RMK A01 T00341020  RH  068%=      5-min Rain = 0
KFR1 141534Z 01003KT 04/M02 A304 RMK A01 T00351019  RH  068%=      5-min Rain = 0
KFR1 141535Z 02003KT 04/M02 A304 RMK A01 T00361019  RH  067%=      5-min Rain = 0
KFR1 141536Z 02002KT 04/M02 A304 RMK A01 T00361019  RH  068%=      5-min Rain = 0
KFR1 141537Z 03001KT 04/M02 A304 RMK A01 T00361019  RH  067%=      5-min Rain = 0
KFR1 141538Z 04001KT 04/M02 A304 RMK A01 T00371019  RH  067%=      5-min Rain = 0
KFR1 141539Z 03002KT 04/M02 A304 RMK A01 T00371019  RH  067%=      5-min Rain = 0
KFR1 141540Z 01002KT 04/M02 A304 RMK A01 T00381019  RH  066%=      5-min Rain = 0
KFR1 141541Z 03002KT 04/M02 A304 RMK A01 T00381019  RH  066%=      5-min Rain = 0
KFR1 141542Z 03002KT 04/M02 A304 RMK A01 T00391018  RH  066%=      5-min Rain = 0
KFR1 141543Z 04003KT 04/M02 A304 RMK A01 T00401017  RH  066%=      5-min Rain = 0
KFR1 141544Z 36001KT 04/M02 A304 RMK A01 T00411017  RH  066%=      5-min Rain = 0
KFR1 141545Z 04001KT 04/M02 A304 RMK A01 T00421017  RH  065%=      5-min Rain = 0
KFR1 141546Z 02002KT 04/M02 A304 RMK A01 T00421017  RH  065%=      5-min Rain = 0
KFR1 141547Z 03002KT 04/M02 A304 RMK A01 T00431017  RH  065%=      5-min Rain = 0
KFR1 141548Z 02003KT 04/M02 A304 RMK A01 T00441016  RH  065%=      5-min Rain = 0
KFR1 141549Z 01003KT 05/M02 A304 RMK A01 T00451015  RH  065%=      5-min Rain = 0
KFR1 141550Z 01003KT 05/M02 A304 RMK A01 T00461016  RH  064%=      5-min Rain = 0
KFR1 141551Z 35002KT 05/M02 A304 RMK A01 T00461017  RH  064%=      5-min Rain = 0
KFR1 141552Z 03003KT 05/M02 A304 RMK A01 T00451017  RH  064%=      5-min Rain = 0
KFR1 141553Z 01003KT 05/M01 A304 RMK A01 T00471014  RH  065%=      5-min Rain = 0
KFR1 141554Z 01003KT 05/M02 A304 RMK A01 T00481015  RH  064%=      5-min Rain = 0
KFR1 141555Z 35003KT 05/M02 A304 RMK A01 T00481015  RH  064%=      5-min Rain = 0
KFR1 141556Z 32002KT 05/M02 A304 RMK A01 T00481016  RH  063%=      5-min Rain = 0
KFR1 141557Z 31001KT 05/M02 A304 RMK A01 T00481015  RH  064%=      5-min Rain = 0
KFR1 141558Z 34001KT 05/M02 A304 RMK A01 T00501015  RH  063%=      5-min Rain = 0
KFR1 141559Z 01002KT 05/M01 A304 RMK A01 T00511014  RH  063%=      5-min Rain = 0
KFR1 141600Z 03002KT 05/M01 A304 RMK A01 T00511014  RH  063%=      5-min Rain = 0
KFR1 141601Z 03002KT 05/M02 A304 RMK A01 T00511015  RH  062%=      5-min Rain = 0
KFR1 141602Z 06003KT 05/M02 A304 RMK A01 T00501015  RH  063%=      5-min Rain = 0
KFR1 141603Z 04002KT 05/M01 A304 RMK A01 T00511014  RH  063%=      5-min Rain = 0
KFR1 141604Z 03001KT 05/M01 A304 RMK A01 T00531013  RH  063%=      5-min Rain = 0
KFR1 141605Z 02001KT 05/M01 A304 RMK A01 T00541012  RH  062%=      5-min Rain = 0
KFR1 141606Z 01003KT 06/M01 A304 RMK A01 T00551013  RH  062%=      5-min Rain = 0
KFR1 141607Z 36002KT 06/M01 A304 RMK A01 T00551013  RH  061%=      5-min Rain = 0
KFR1 141608Z 03001KT 06/M01 A304 RMK A01 T00561012  RH  062%=      5-min Rain = 0
KFR1 141609Z 35002KT 06/M01 A304 RMK A01 T00581011  RH  061%=      5-min Rain = 0
KFR1 141610Z 02002KT 06/M01 A304 RMK A01 T00591011  RH  061%=      5-min Rain = 0
KFR1 141611Z 35002KT 06/M01 A304 RMK A01 T00591011  RH  060%=      5-min Rain = 0
KFR1 141612Z 03002KT 06/M01 A304 RMK A01 T00591011  RH  061%=      5-min Rain = 0
KFR1 141613Z 01002KT 06/M01 A304 RMK A01 T00611009  RH  061%=      5-min Rain = 0
KFR1 141614Z 01001KT 06/M01 A304 RMK A01 T00611011  RH  060%=      5-min Rain = 0
KFR1 141615Z 02002KT 06/M01 A304 RMK A01 T00601012  RH  060%=      5-min Rain = 0
KFR1 141616Z 05002KT 06/M01 A304 RMK A01 T00601011  RH  060%=      5-min Rain = 0
KFR1 141617Z 03003KT 06/M01 A3041 RMK A01 T00611011  RH  060%=      5-min Rain = 0
KFR1 141618Z 04002KT 06/M01 A3041 RMK A01 T00611009  RH  061%=      5-min Rain = 0
KFR1 141619Z 03003KT 06/M01 A3041 RMK A01 T00641006  RH  061%=      5-min Rain = 0
KFR1 141620Z 02003KT 06/M01 A3041 RMK A01 T00641009  RH  059%=      5-min Rain = 0
KFR1 141621Z 01003KT 06/M01 A3041 RMK A01 T00641010  RH  059%=      5-min Rain = 0
KFR1 141622Z 03003KT 06/M01 A3041 RMK A01 T00621012  RH  059%=      5-min Rain = 0
KFR1 141623Z 05002KT 06/M01 A3041 RMK A01 T00601011  RH  060%=      5-min Rain = 0
KFR1 141624Z 01002KT 06/M01 A3041 RMK A01 T00601009  RH  061%=      5-min Rain = 0
KFR1 141625Z 01002KT 06/M01 A3041 RMK A01 T00621008  RH  061%=      5-min Rain = 0
KFR1 141626Z 36001KT 06/M01 A3041 RMK A01 T00621010  RH  060%=      5-min Rain = 0
KFR1 141627Z 34000KT 06/M01 A3041 RMK A01 T00621010  RH  060%=      5-min Rain = 0
KFR1 141628Z 02003KT 06/M01 A3041 RMK A01 T00621009  RH  060%=      5-min Rain = 0
KFR1 141629Z 01004KT 06/M01 A3041 RMK A01 T00631008  RH  060%=      5-min Rain = 0
KFR1 141630Z 02002KT 06/M01 A3041 RMK A01 T00641009  RH  060%=      5-min Rain = 0
KFR1 141631Z 05001KT 06/M01 A3041 RMK A01 T00641009  RH  060%=      5-min Rain = 0
KFR1 141632Z 03003KT 06/M01 A3041 RMK A01 T00641008  RH  060%=      5-min Rain = 0
KFR1 141633Z 02004KT 07/M01 A3041 RMK A01 T00651008  RH  059%=      5-min Rain = 0
KFR1 141634Z 03003KT 07/M01 A3041 RMK A01 T00651009  RH  059%=      5-min Rain = 0
KFR1 141635Z 03004KT 06/M01 A3041 RMK A01 T00641009  RH  059%=      5-min Rain = 0
KFR1 141636Z 03005KT 07/M01 A3041 RMK A01 T00651009  RH  059%=      5-min Rain = 0
KFR1 141637Z 04004KT 07/M01 A3041 RMK A01 T00651008  RH  060%=      5-min Rain = 0
KFR1 141638Z 04003KT 07/M01 A3041 RMK A01 T00671006  RH  060%=      5-min Rain = 0
KFR1 141639Z 02003KT 07/M01 A3041 RMK A01 T00681007  RH  059%=      5-min Rain = 0
KFR1 141640Z 01003KT 07/M01 A3041 RMK A01 T00671008  RH  059%=      5-min Rain = 0
KFR1 141641Z 01004KT 07/M01 A3041 RMK A01 T00671007  RH  059%=      5-min Rain = 0
KFR1 141642Z 02004KT 07/M01 A3041 RMK A01 T00701005  RH  059%=      5-min Rain = 0
KFR1 141643Z 02004KT 07/M01 A3041 RMK A01 T00691007  RH  058%=      5-min Rain = 0
KFR1 141644Z 03002KT 07/M01 A3041 RMK A01 T00691007  RH  058%=      5-min Rain = 0
KFR1 141645Z 01004KT 07/M01 A3041 RMK A01 T00701005  RH  059%=      5-min Rain = 0
KFR1 141646Z 35004KT 07/M00 A3041 RMK A01 T00731003  RH  058%=      5-min Rain = 0
KFR1 141647Z 36002KT 07/M01 A3041 RMK A01 T00741005  RH  057%=      5-min Rain = 0
KFR1 141648Z 01004KT 07/M01 A3041 RMK A01 T00741005  RH  057%=      5-min Rain = 0
KFR1 141649Z 00005KT 08/M01 A3041 RMK A01 T00751005  RH  057%=      5-min Rain = 0
KFR1 141650Z 35004KT 08/M01 A3041 RMK A01 T00751006  RH  057%=      5-min Rain = 0
KFR1 141651Z 00004KT 07/M01 A3041 RMK A01 T00741006  RH  057%=      5-min Rain = 0
KFR1 141652Z 34001KT 07/M01 A3041 RMK A01 T00741006  RH  057%=      5-min Rain = 0
KFR1 141653Z 01003KT 08/M00 A3041 RMK A01 T00751004  RH  057%=      5-min Rain = 0
KFR1 141654Z 00004KT 08/M00 A3041 RMK A01 T00771004  RH  057%=      5-min Rain = 0
KFR1 141655Z 02002KT 08/M00 A3041 RMK A01 T00771004  RH  056%=      5-min Rain = 0
KFR1 141656Z 02004KT 08/M00 A3041 RMK A01 T00791003  RH  056%=      5-min Rain = 0
KFR1 141657Z 00003KT 08/M01 A3041 RMK A01 T00791006  RH  055%=      5-min Rain = 0
KFR1 141658Z 36001KT 08/M01 A3041 RMK A01 T00761007  RH  055%=      5-min Rain = 0
KFR1 141659Z 01004KT 08/M01 A3041 RMK A01 T00771005  RH  056%=      5-min Rain = 0
KFR1 141700Z 02004KT 08/M01 A3041 RMK A01 T00781006  RH  055%=      5-min Rain = 0
KFR1 141701Z 02004KT 08/M01 A3041 RMK A01 T00771007  RH  056%=      5-min Rain = 0
KFR1 141702Z 03003KT 08/M01 A3041 RMK A01 T00781005  RH  056%=      5-min Rain = 0
KFR1 141703Z 00003KT 08/M00 A3041 RMK A01 T00791004  RH  056%=      5-min Rain = 0
KFR1 141704Z 01004KT 08/M00 A3041 RMK A01 T00831002  RH  055%=      5-min Rain = 0
KFR1 141705Z 03003KT 08/M00 A3041 RMK A01 T00831004  RH  054%=      5-min Rain = 0
KFR1 141706Z 05003KT 08/M00 A3041 RMK A01 T00841002  RH  055%=      5-min Rain = 0
KFR1 141707Z 06004KT 09/M00 A3041 RMK A01 T00851003  RH  054%=      5-min Rain = 0
KFR1 141708Z 07005KT 08/M01 A3041 RMK A01 T00841005  RH  054%=      5-min Rain = 0
KFR1 141709Z 07004KT 08/M01 A3041 RMK A01 T00821006  RH  054%=      5-min Rain = 0
KFR1 141710Z 05004KT 08/M01 A3041 RMK A01 T00811006  RH  054%=      5-min Rain = 0
KFR1 141711Z 06004KT 08/M00 A3041 RMK A01 T00831004  RH  055%=      5-min Rain = 0
KFR1 141712Z 06003KT 08/M00 A3041 RMK A01 T00841004  RH  054%=      5-min Rain = 0
KFR1 141713Z 07002KT 08/M01 A3041 RMK A01 T00841005  RH  054%=      5-min Rain = 0
KFR1 141714Z 07001KT 08/M01 A3041 RMK A01 T00831005  RH  054%=      5-min Rain = 0
KFR1 141715Z 06002KT 08/M00 A3041 RMK A01 T00841004  RH  054%=      5-min Rain = 0
KFR1 141716Z 02003KT 09/M00 A3041 RMK A01 T00871001  RH  054%=      5-min Rain = 0
KFR1 141717Z 02002KT 09/M00 A3041 RMK A01 T00881003  RH  053%=      5-min Rain = 0
KFR1 141718Z 05005KT 09/M00 A3041 RMK A01 T00871004  RH  053%=      5-min Rain = 0
KFR1 141719Z 06004KT 09/M01 A3041 RMK A01 T00851005  RH  053%=      5-min Rain = 0
KFR1 141720Z 07001KT 09/M00 A3041 RMK A01 T00851004  RH  054%=      5-min Rain = 0
KFR1 141721Z 36002KT 09/M00 A3041 RMK A01 T00861003  RH  054%=      5-min Rain = 0
KFR1 141722Z 04002KT 09/M00 A3041 RMK A01 T00871003  RH  053%=      5-min Rain = 0
KFR1 141723Z 06002KT 09/M00 A3041 RMK A01 T00871004  RH  053%=      5-min Rain = 0
KFR1 141724Z 07003KT 09/M00 A3041 RMK A01 T00861004  RH  053%=      5-min Rain = 0
KFR1 141725Z 05002KT 09/M00 A3041 RMK A01 T00871004  RH  053%=      5-min Rain = 0
KFR1 141726Z 01000KT 09/M00 A3041 RMK A01 T00871004  RH  053%=      5-min Rain = 0
KFR1 141727Z 13000KT 09/M00 A3041 RMK A01 T00871003  RH  053%=      5-min Rain = 0
KFR1 141728Z 35003KT 09/00 A3041 RMK A01 T009000-0  RH  053%=      5-min Rain = 0
KFR1 141729Z 36002KT 09/00 A3041 RMK A01 T009200-0  RH  052%=      5-min Rain = 0
KFR1 141730Z 03002KT 09/M00 A3041 RMK A01 T00911003  RH  052%=      5-min Rain = 0
KFR1 141731Z 02004KT 09/M00 A3041 RMK A01 T00901003  RH  052%=      5-min Rain = 0
KFR1 141732Z 34006KT 09/M00 A3041 RMK A01 T00901002  RH  053%=      5-min Rain = 0
KFR1 141733Z 33005KT 09/M00 A3041 RMK A01 T00891004  RH  052%=      5-min Rain = 0
KFR1 141734Z 36002KT 09/M00 A3041 RMK A01 T00891003  RH  053%=      5-min Rain = 0
KFR1 141735Z 02004KT 09/M00 A3041 RMK A01 T00891003  RH  053%=      5-min Rain = 0
KFR1 141736Z 03005KT 09/M00 A3041 RMK A01 T00881002  RH  053%=      5-min Rain = 0
KFR1 141737Z 06005KT 09/M00 A3041 RMK A01 T00901001  RH  053%=      5-min Rain = 0
KFR1 141738Z 06004KT 09/M00 A3041 RMK A01 T00891004  RH  052%=      5-min Rain = 0
KFR1 141739Z 02003KT 09/M00 A3041 RMK A01 T00881004  RH  053%=      5-min Rain = 0
KFR1 141740Z 02003KT 09/M00 A3041 RMK A01 T00881003  RH  053%=      5-min Rain = 0
KFR1 141741Z 01005KT 09/M00 A3041 RMK A01 T00881002  RH  053%=      5-min Rain = 0
KFR1 141742Z 04005KT 09/00 A3041 RMK A01 T00920000  RH  053%=      5-min Rain = 0
KFR1 141743Z 04003KT 09/M00 A3041 RMK A01 T00911003  RH  052%=      5-min Rain = 0
KFR1 141744Z 02002KT 09/M00 A3041 RMK A01 T00901003  RH  052%=      5-min Rain = 0
KFR1 141745Z 07001KT 09/M00 A3041 RMK A01 T00911002  RH  052%=      5-min Rain = 0
KFR1 141746Z 02002KT 09/00 A3041 RMK A01 T00930000  RH  052%=      5-min Rain = 0
KFR1 141747Z 08002KT 10/00 A3041 RMK A01 T009500-0  RH  051%=      5-min Rain = 0
KFR1 141748Z 05002KT 09/M00 A3041 RMK A01 T00941002  RH  051%=      5-min Rain = 0
KFR1 141749Z 04003KT 10/M00 A3041 RMK A01 T00951002  RH  051%=      5-min Rain = 0
KFR1 141750Z 02005KT 10/00 A3041 RMK A01 T009600-0  RH  051%=      5-min Rain = 0
KFR1 141751Z 04004KT 10/00 A3041 RMK A01 T00970000  RH  051%=      5-min Rain = 0
KFR1 141752Z 04003KT 10/00 A3041 RMK A01 T00980000  RH  051%=      5-min Rain = 0
KFR1 141753Z 03002KT 10/M00 A304 RMK A01 T00981001  RH  050%=      5-min Rain = 0
KFR1 141754Z 00002KT 10/M00 A304 RMK A01 T00971002  RH  050%=      5-min Rain = 0
KFR1 141755Z 35003KT 10/M00 A304 RMK A01 T00971002  RH  050%=      5-min Rain = 0
KFR1 141756Z 05003KT 10/M00 A304 RMK A01 T00951003  RH  050%=      5-min Rain = 0
KFR1 141757Z 01002KT 09/M00 A304 RMK A01 T00941001  RH  051%=      5-min Rain = 0
KFR1 141758Z 02002KT 10/00 A304 RMK A01 T00980002  RH  051%=      5-min Rain = 0
KFR1 141759Z 04003KT 10/00 A304 RMK A01 T01000001  RH  050%=      5-min Rain = 0
KFR1 141800Z 01003KT 10/M00 A304 RMK A01 T00991001  RH  050%=      5-min Rain = 0
KFR1 141801Z 01002KT 10/M00 A304 RMK A01 T00981001  RH  050%=      5-min Rain = 0
KFR1 141802Z 00003KT 10/00 A304 RMK A01 T01000003  RH  051%=      5-min Rain = 0
KFR1 141803Z 35003KT 10/00 A304 RMK A01 T01030001  RH  049%=      5-min Rain = 0
KFR1 141804Z 03002KT 10/00 A304 RMK A01 T01030000  RH  049%=      5-min Rain = 0
KFR1 141805Z 05002KT 10/00 A304 RMK A01 T010200-0  RH  049%=      5-min Rain = 0
KFR1 141806Z 00004KT 10/00 A304 RMK A01 T01030002  RH  049%=      5-min Rain = 0
KFR1 141807Z 01004KT 10/00 A304 RMK A01 T01040000  RH  049%=      5-min Rain = 0
KFR1 141808Z 02002G7KT 10/M00 A304 RMK A01 T01011002  RH  049%=      5-min Rain = 0
KFR1 141809Z 36007KT 10/00 A304 RMK A01 T01020000  RH  049%=      5-min Rain = 0
KFR1 141810Z 00007KT 10/M00 A304 RMK A01 T01021001  RH  049%=      5-min Rain = 0
KFR1 141811Z 01007KT 10/00 A304 RMK A01 T010200-0  RH  049%=      5-min Rain = 0
KFR1 141812Z 02006KT 10/M00 A304 RMK A01 T01011002  RH  049%=      5-min Rain = 0
KFR1 141813Z 04005KT 10/M00 A304 RMK A01 T00991001  RH  050%=      5-min Rain = 0
KFR1 141814Z 05003KT 10/M00 A304 RMK A01 T00991001  RH  050%=      5-min Rain = 0
KFR1 141815Z 01005KT 10/00 A304 RMK A01 T01010001  RH  050%=      5-min Rain = 0
KFR1 141816Z 00005KT 10/00 A304 RMK A01 T01020000  RH  049%=      5-min Rain = 0
KFR1 141817Z 00005KT 10/00 A304 RMK A01 T010200-0  RH  049%=      5-min Rain = 0
KFR1 141818Z 35005KT 10/M00 A304 RMK A01 T01021001  RH  049%=      5-min Rain = 0
KFR1 141819Z 01006KT 10/00 A3039 RMK A01 T01040002  RH  049%=      5-min Rain = 0
KFR1 141820Z 02006KT 11/00 A3039 RMK A01 T01060001  RH  048%=      5-min Rain = 0
KFR1 141821Z 36007KT 10/00 A3039 RMK A01 T01040000  RH  048%=      5-min Rain = 0
KFR1 141822Z 36008KT 11/M00 A3039 RMK A01 T01051001  RH  048%=      5-min Rain = 0
KFR1 141823Z 01008KT 10/M00 A3039 RMK A01 T01031003  RH  048%=      5-min Rain = 0
KFR1 141824Z 02004KT 10/M00 A3039 RMK A01 T01011003  RH  048%=      5-min Rain = 0
KFR1 141825Z 01003KT 10/M00 A3039 RMK A01 T01011002  RH  049%=      5-min Rain = 0
KFR1 141826Z 02004KT 10/M00 A3039 RMK A01 T01021001  RH  049%=      5-min Rain = 0
KFR1 141827Z 36005KT 11/00 A3039 RMK A01 T01050002  RH  049%=      5-min Rain = 0
KFR1 141828Z 01006KT 11/00 A3039 RMK A01 T01080002  RH  048%=      5-min Rain = 0
KFR1 141829Z 00005KT 11/M00 A3039 RMK A01 T01071002  RH  047%=      5-min Rain = 0
KFR1 141830Z 36005KT 11/M00 A3039 RMK A01 T01051002  RH  048%=      5-min Rain = 0
KFR1 141831Z 36006KT 10/M00 A3039 RMK A01 T01041001  RH  048%=      5-min Rain = 0
KFR1 141832Z 01005KT 11/00 A3039 RMK A01 T01060000  RH  048%=      5-min Rain = 0
KFR1 141833Z 35004KT 11/M00 A3039 RMK A01 T01051002  RH  048%=      5-min Rain = 0
KFR1 141834Z 01008KT 11/00 A3039 RMK A01 T01060001  RH  048%=      5-min Rain = 0
KFR1 141835Z 00007KT 11/M00 A3039 RMK A01 T01081001  RH  047%=      5-min Rain = 0
KFR1 141836Z 35005KT 11/M00 A3039 RMK A01 T01081001  RH  047%=      5-min Rain = 0
KFR1 141837Z 36006KT 11/00 A3039 RMK A01 T01100000  RH  047%=      5-min Rain = 0
KFR1 141838Z 04005KT 11/M00 A3039 RMK A01 T01111001  RH  046%=      5-min Rain = 0
KFR1 141839Z 03005KT 11/M00 A3039 RMK A01 T01111001  RH  046%=      5-min Rain = 0
KFR1 141840Z 00004KT 11/M00 A3039 RMK A01 T01101003  RH  045%=      5-min Rain = 0
KFR1 141841Z 00004KT 11/M00 A3039 RMK A01 T01091001  RH  047%=      5-min Rain = 0
KFR1 141842Z 01006KT 11/00 A3039 RMK A01 T01120002  RH  047%=      5-min Rain = 0
KFR1 141843Z 00007KT 12/00 A3039 RMK A01 T01150002  RH  046%=      5-min Rain = 0
KFR1 141844Z 35007KT 11/00 A3039 RMK A01 T01130001  RH  046%=      5-min Rain = 0
KFR1 141845Z 01006KT 11/00 A3039 RMK A01 T011100-0  RH  046%=      5-min Rain = 0
KFR1 141846Z 35007KT 11/00 A3038 RMK A01 T01110001  RH  046%=      5-min Rain = 0
KFR1 141847Z 35006KT 11/M00 A3038 RMK A01 T01101001  RH  046%=      5-min Rain = 0
KFR1 141848Z 35007KT 11/00 A3038 RMK A01 T011000-0  RH  047%=      5-min Rain = 0
KFR1 141849Z 36008KT 11/00 A3038 RMK A01 T01100000  RH  047%=      5-min Rain = 0
KFR1 141850Z 00007KT 11/00 A3038 RMK A01 T011000-0  RH  047%=      5-min Rain = 0
KFR1 141851Z 01007KT 11/00 A3038 RMK A01 T01110000  RH  046%=      5-min Rain = 0
KFR1 141852Z 01006KT 11/M00 A3038 RMK A01 T01101001  RH  046%=      5-min Rain = 0
KFR1 141853Z 00006KT 11/00 A3038 RMK A01 T01100001  RH  047%=      5-min Rain = 0
KFR1 141854Z 00005KT 11/M00 A3038 RMK A01 T01121001  RH  046%=      5-min Rain = 0
KFR1 141855Z 01006KT 11/00 A3038 RMK A01 T01120001  RH  046%=      5-min Rain = 0
KFR1 141856Z 01006KT 11/M00 A3038 RMK A01 T01141001  RH  045%=      5-min Rain = 0
KFR1 141857Z 36006KT 11/M00 A3038 RMK A01 T01111003  RH  045%=      5-min Rain = 0
KFR1 141858Z 35007KT 11/M00 A3038 RMK A01 T01111002  RH  046%=      5-min Rain = 0
KFR1 141859Z 00008KT 11/M00 A3038 RMK A01 T01121001  RH  045%=      5-min Rain = 0
KFR1 141900Z 01009KT 11/M00 A3038 RMK A01 T01131002  RH  045%=      5-min Rain = 0
KFR1 141901Z 00007KT 11/M00 A3038 RMK A01 T01111004  RH  045%=      5-min Rain = 0
KFR1 141902Z 36004KT 11/M00 A3038 RMK A01 T01101004  RH  046%=      5-min Rain = 0
KFR1 141903Z 36007KT 11/M00 A3038 RMK A01 T01101002  RH  046%=      5-min Rain = 0
KFR1 141904Z 01007KT 11/M00 A3037 RMK A01 T01121001  RH  046%=      5-min Rain = 0
KFR1 141905Z 00006KT 11/M00 A3037 RMK A01 T01111002  RH  046%=      5-min Rain = 0
KFR1 141906Z 00006KT 11/00 A3037 RMK A01 T011200-0  RH  046%=      5-min Rain = 0
KFR1 141907Z 00007KT 11/00 A3037 RMK A01 T011300-0  RH  046%=      5-min Rain = 0
KFR1 141908Z 01006KT 11/M00 A3037 RMK A01 T01131001  RH  045%=      5-min Rain = 0
KFR1 141909Z 35005KT 11/M00 A3037 RMK A01 T01141001  RH  045%=      5-min Rain = 0
KFR1 141910Z 01005KT 12/00 A3037 RMK A01 T01150001  RH  045%=      5-min Rain = 0
KFR1 141911Z 00007KT 12/00 A3037 RMK A01 T01160001  RH  045%=      5-min Rain = 0
KFR1 141912Z 00006KT 12/00 A3037 RMK A01 T01160002  RH  045%=      5-min Rain = 0
KFR1 141913Z 00007KT 12/00 A3037 RMK A01 T01170001  RH  045%=      5-min Rain = 0
KFR1 141914Z 35007KT 12/00 A3037 RMK A01 T01180002  RH  045%=      5-min Rain = 0
KFR1 141915Z 35008KT 12/M00 A3037 RMK A01 T01191001  RH  044%=      5-min Rain = 0
KFR1 141916Z 02007KT 12/M00 A3037 RMK A01 T01171002  RH  044%=      5-min Rain = 0
KFR1 141917Z 03004KT 11/M00 A3037 RMK A01 T01141004  RH  044%=      5-min Rain = 0
KFR1 141918Z 00004KT 11/M00 A3037 RMK A01 T01141002  RH  045%=      5-min Rain = 0
KFR1 141919Z 00005KT 12/00 A3037 RMK A01 T011700-0  RH  044%=      5-min Rain = 0
KFR1 141920Z 01005KT 12/M00 A3037 RMK A01 T01181001  RH  044%=      5-min Rain = 0
KFR1 141921Z 01005KT 12/M00 A3037 RMK A01 T01161003  RH  044%=      5-min Rain = 0
KFR1 141922Z 36005KT 12/M00 A3037 RMK A01 T01151002  RH  044%=      5-min Rain = 0
KFR1 141923Z 02004KT 12/M00 A3037 RMK A01 T01171002  RH  044%=      5-min Rain = 0
KFR1 141924Z 03003KT 12/M00 A3037 RMK A01 T01181001  RH  044%=      5-min Rain = 0
KFR1 141925Z 05005KT 12/00 A3036 RMK A01 T01210002  RH  044%=      5-min Rain = 0
KFR1 141926Z 04006KT 12/00 A3036 RMK A01 T01200000  RH  044%=      5-min Rain = 0
KFR1 141927Z 04006KT 12/M00 A3036 RMK A01 T01211001  RH  043%=      5-min Rain = 0
KFR1 141928Z 01007KT 12/M00 A3036 RMK A01 T01201001  RH  043%=      5-min Rain = 0
KFR1 141929Z 00007KT 12/M00 A3036 RMK A01 T01211001  RH  043%=      5-min Rain = 0
KFR1 141930Z 35007KT 12/00 A3036 RMK A01 T012000-0  RH  043%=      5-min Rain = 0
KFR1 141931Z 36007KT 12/00 A3036 RMK A01 T01200000  RH  044%=      5-min Rain = 0
KFR1 141932Z 35006KT 12/M00 A3036 RMK A01 T01191002  RH  043%=      5-min Rain = 0
KFR1 141933Z 36007KT 12/M00 A3036 RMK A01 T01191002  RH  043%=      5-min Rain = 0
KFR1 141934Z 01007KT 12/M00 A3036 RMK A01 T01181002  RH  043%=      5-min Rain = 0
KFR1 141935Z 01007KT 12/M00 A3036 RMK A01 T01181003  RH  043%=      5-min Rain = 0
KFR1 141936Z 01005KT 12/M00 A3036 RMK A01 T01171001  RH  044%=      5-min Rain = 0
KFR1 141937Z 00006KT 12/00 A3036 RMK A01 T01190000  RH  044%=      5-min Rain = 0
KFR1 141938Z 01005KT 12/00 A3036 RMK A01 T01200000  RH  043%=      5-min Rain = 0
KFR1 141939Z 00006KT 12/M00 A3036 RMK A01 T01211001  RH  043%=      5-min Rain = 0
KFR1 141940Z 01007KT 12/00 A3036 RMK A01 T012100-0  RH  043%=      5-min Rain = 0
KFR1 141941Z 00006KT 12/M00 A3036 RMK A01 T01211002  RH  043%=      5-min Rain = 0
KFR1 141942Z 00007KT 12/M00 A3036 RMK A01 T01191003  RH  043%=      5-min Rain = 0
KFR1 141943Z 00006KT 12/M01 A3036 RMK A01 T01201005  RH  042%=      5-min Rain = 0
KFR1 141944Z 00006KT 12/M00 A3036 RMK A01 T01181004  RH  043%=      5-min Rain = 0
KFR1 141945Z 35006KT 12/M00 A3036 RMK A01 T01191004  RH  043%=      5-min Rain = 0
KFR1 141946Z 00007KT 12/M00 A3036 RMK A01 T01181004  RH  043%=      5-min Rain = 0
KFR1 141947Z 01005KT 12/M00 A3036 RMK A01 T01191003  RH  043%=      5-min Rain = 0
KFR1 141948Z 01005KT 12/M00 A3036 RMK A01 T01201004  RH  042%=      5-min Rain = 0
KFR1 141949Z 35005KT 12/M00 A3036 RMK A01 T01211002  RH  043%=      5-min Rain = 0
KFR1 141950Z 35005KT 12/M00 A3036 RMK A01 T01221001  RH  043%=      5-min Rain = 0
KFR1 141951Z 35004KT 12/M00 A3036 RMK A01 T01211001  RH  043%=      5-min Rain = 0
KFR1 141952Z 36005KT 12/00 A3036 RMK A01 T012100-0  RH  043%=      5-min Rain = 0
KFR1 141953Z 35005KT 12/M00 A3036 RMK A01 T01201002  RH  043%=      5-min Rain = 0
KFR1 141954Z 36005KT 12/M00 A3036 RMK A01 T01191004  RH  043%=      5-min Rain = 0
KFR1 141955Z 00005KT 12/00 A3036 RMK A01 T012100-0  RH  043%=      5-min Rain = 0
KFR1 141956Z 35007KT 12/M00 A3036 RMK A01 T01221001  RH  043%=      5-min Rain = 0
KFR1 141957Z 00006KT 12/M00 A3036 RMK A01 T01201004  RH  042%=      5-min Rain = 0
KFR1 141958Z 00004KT 12/M00 A3036 RMK A01 T01191003  RH  043%=      5-min Rain = 0
KFR1 141959Z 01005KT 12/00 A3036 RMK A01 T01220000  RH  043%=      5-min Rain = 0
KFR1 142000Z 01006KT 12/M00 A3036 RMK A01 T01231003  RH  042%=      5-min Rain = 0
KFR1 142001Z 36006KT 12/M00 A3036 RMK A01 T01231003  RH  042%=      5-min Rain = 0
KFR1 142002Z 36006KT 12/M00 A3036 RMK A01 T01221004  RH  042%=      5-min Rain = 0
KFR1 142003Z 36007KT 12/M00 A3036 RMK A01 T01221003  RH  042%=      5-min Rain = 0
KFR1 142004Z 01006KT 12/M00 A3036 RMK A01 T01231002  RH  042%=      5-min Rain = 0
KFR1 142005Z 00006KT 12/M00 A3035 RMK A01 T01231002  RH  042%=      5-min Rain = 0
KFR1 142006Z 00007KT 12/M00 A3035 RMK A01 T01231003  RH  042%=      5-min Rain = 0
KFR1 142007Z 00006KT 12/M00 A3035 RMK A01 T01221003  RH  042%=      5-min Rain = 0
KFR1 142008Z 01007KT 12/M01 A3035 RMK A01 T01231005  RH  041%=      5-min Rain = 0
KFR1 142009Z 36006KT 12/M00 A3035 RMK A01 T01221004  RH  042%=      5-min Rain = 0
KFR1 142010Z 01006KT 12/M00 A3035 RMK A01 T01241004  RH  042%=      5-min Rain = 0
KFR1 142011Z 01005KT 12/M01 A3035 RMK A01 T01231007  RH  041%=      5-min Rain = 0
KFR1 142012Z 35005KT 12/M01 A3035 RMK A01 T01191008  RH  041%=      5-min Rain = 0
KFR1 142013Z 35006KT 12/M01 A3035 RMK A01 T01191005  RH  042%=      5-min Rain = 0
KFR1 142014Z 36006KT 12/M01 A3035 RMK A01 T01201005  RH  042%=      5-min Rain = 0
KFR1 142015Z 00005KT 12/M00 A3035 RMK A01 T01211004  RH  042%=      5-min Rain = 0
KFR1 142016Z 35006KT 12/M00 A3035 RMK A01 T01221003  RH  042%=      5-min Rain = 0
KFR1 142017Z 36005KT 12/M00 A3035 RMK A01 T01221003  RH  042%=      5-min Rain = 0
KFR1 142018Z 36006KT 12/M00 A3035 RMK A01 T01231002  RH  042%=      5-min Rain = 0
KFR1 142019Z 35005KT 12/M00 A3035 RMK A01 T01241004  RH  041%=      5-min Rain = 0
KFR1 142020Z 35006KT 12/M00 A3035 RMK A01 T01241004  RH  041%=      5-min Rain = 0
KFR1 142021Z 35005KT 12/M01 A3035 RMK A01 T01221005  RH  041%=      5-min Rain = 0
KFR1 142022Z 01006KT 12/M00 A3035 RMK A01 T01231004  RH  042%=      5-min Rain = 0
KFR1 142023Z 01006KT 12/M00 A3035 RMK A01 T01221004  RH  042%=      5-min Rain = 0
KFR1 142024Z 02006KT 12/M01 A3035 RMK A01 T01221005  RH  042%=      5-min Rain = 0
KFR1 142025Z 01005KT 12/M01 A3035 RMK A01 T01221005  RH  042%=      5-min Rain = 0
KFR1 142026Z 00005KT 12/M01 A3035 RMK A01 T01221005  RH  042%=      5-min Rain = 0
KFR1 142027Z 36005KT 12/M01 A3035 RMK A01 T01221006  RH  041%=      5-min Rain = 0
KFR1 142028Z 36006KT 12/M01 A3035 RMK A01 T01221005  RH  041%=      5-min Rain = 0
KFR1 142029Z 01006KT 12/M01 A3035 RMK A01 T01221006  RH  041%=      5-min Rain = 0
KFR1 142030Z 00006KT 12/M01 A3035 RMK A01 T01221005  RH  041%=      5-min Rain = 0
KFR1 142031Z 36007KT 12/M01 A3035 RMK A01 T01211006  RH  042%=      5-min Rain = 0
KFR1 142032Z 36006KT 12/M00 A3035 RMK A01 T01201004  RH  042%=      5-min Rain = 0
KFR1 142033Z 36006KT 12/M00 A3035 RMK A01 T01211004  RH  042%=      5-min Rain = 0
KFR1 142034Z 36007KT 12/M01 A3035 RMK A01 T01211006  RH  042%=      5-min Rain = 0
KFR1 142035Z 34004KT 12/M01 A3035 RMK A01 T01191006  RH  042%=      5-min Rain = 0
KFR1 142036Z 36004KT 12/M00 A3035 RMK A01 T01201004  RH  043%=      5-min Rain = 0
KFR1 142037Z 36005KT 12/M00 A3035 RMK A01 T01221003  RH  042%=      5-min Rain = 0
KFR1 142038Z 36005KT 12/M00 A3035 RMK A01 T01231003  RH  042%=      5-min Rain = 0
KFR1 142039Z 00006KT 12/M00 A3035 RMK A01 T01231003  RH  042%=      5-min Rain = 0
KFR1 142040Z 00007KT 12/M00 A3035 RMK A01 T01231004  RH  042%=      5-min Rain = 0
KFR1 142041Z 35006KT 12/M00 A3035 RMK A01 T01211004  RH  042%=      5-min Rain = 0
KFR1 142042Z 35007KT 12/M00 A3035 RMK A01 T01211004  RH  042%=      5-min Rain = 0
KFR1 142043Z 35008KT 12/M00 A3035 RMK A01 T01211004  RH  042%=      5-min Rain = 0
KFR1 142044Z 35008KT 12/M00 A3035 RMK A01 T01211002  RH  043%=      5-min Rain = 0
KFR1 142045Z 36007KT 12/M00 A3035 RMK A01 T01221004  RH  042%=      5-min Rain = 0
KFR1 142046Z 35006KT 12/M01 A3035 RMK A01 T01211005  RH  042%=      5-min Rain = 0
KFR1 142047Z 00006KT 12/M00 A3035 RMK A01 T01221003  RH  042%=      5-min Rain = 0
KFR1 142048Z 00006KT 12/M00 A3035 RMK A01 T01221001  RH  043%=      5-min Rain = 0
KFR1 142049Z 36006KT 12/00 A3035 RMK A01 T01230001  RH  043%=      5-min Rain = 0
KFR1 142050Z 00006KT 12/M00 A3035 RMK A01 T01221001  RH  043%=      5-min Rain = 0
KFR1 142051Z 00007KT 12/M00 A3035 RMK A01 T01221003  RH  042%=      5-min Rain = 0
KFR1 142052Z 00006KT 12/M01 A3035 RMK A01 T01221005  RH  041%=      5-min Rain = 0
KFR1 142053Z 00006KT 12/M00 A3035 RMK A01 T01231004  RH  042%=      5-min Rain = 0
KFR1 142054Z 01006KT 12/M00 A3035 RMK A01 T01231004  RH  041%=      5-min Rain = 0
KFR1 142055Z 00006KT 12/M01 A3035 RMK A01 T01241006  RH  041%=      5-min Rain = 0
KFR1 142056Z 35005KT 12/M01 A3035 RMK A01 T01231006  RH  041%=      5-min Rain = 0
KFR1 142057Z 01005KT 12/M01 A3035 RMK A01 T01231005  RH  041%=      5-min Rain = 0
KFR1 142058Z 36005KT 12/M01 A3035 RMK A01 T01231005  RH  041%=      5-min Rain = 0
KFR1 142059Z 36008KT 12/M01 A3035 RMK A01 T01241006  RH  041%=      5-min Rain = 0
KFR1 142100Z 01007KT 12/M01 A3035 RMK A01 T01241006  RH  041%=      5-min Rain = 0
KFR1 142101Z 01007KT 12/M01 A3035 RMK A01 T01241006  RH  041%=      5-min Rain = 0
KFR1 142102Z 01005KT 12/M01 A3035 RMK A01 T01241006  RH  041%=      5-min Rain = 0
KFR1 142103Z 00006KT 12/M01 A3035 RMK A01 T01241006  RH  041%=      5-min Rain = 0
KFR1 142104Z 35004KT 12/M01 A3035 RMK A01 T01231007  RH  041%=      5-min Rain = 0
KFR1 142105Z 35005KT 12/M01 A3035 RMK A01 T01231006  RH  041%=      5-min Rain = 0
KFR1 142106Z 01005KT 12/M00 A3035 RMK A01 T01241004  RH  041%=      5-min Rain = 0
KFR1 142107Z 01006KT 12/M01 A3035 RMK A01 T01241005  RH  041%=      5-min Rain = 0
KFR1 142108Z 01005KT 12/M01 A3035 RMK A01 T01241006  RH  041%=      5-min Rain = 0
KFR1 142109Z 01005KT 12/M01 A3035 RMK A01 T01221007  RH  041%=      5-min Rain = 0
KFR1 142110Z 00006KT 12/M01 A3035 RMK A01 T01221005  RH  041%=      5-min Rain = 0
KFR1 142111Z 01005KT 12/M00 A3035 RMK A01 T01231004  RH  042%=      5-min Rain = 0
KFR1 142112Z 00005KT 12/M00 A3035 RMK A01 T01231004  RH  041%=      5-min Rain = 0
KFR1 142113Z 00004KT 12/M00 A3035 RMK A01 T01231004  RH  041%=      5-min Rain = 0
KFR1 142114Z 02007KT 12/M00 A3035 RMK A01 T01241003  RH  042%=      5-min Rain = 0
KFR1 142115Z 03006KT 13/M00 A3035 RMK A01 T01261004  RH  041%=      5-min Rain = 0
KFR1 142116Z 05005KT 13/M01 A3035 RMK A01 T01251006  RH  040%=      5-min Rain = 0
KFR1 142117Z 07002KT 13/M01 A3035 RMK A01 T01251007  RH  040%=      5-min Rain = 0
KFR1 142118Z 35004KT 13/M01 A3035 RMK A01 T01261006  RH  040%=      5-min Rain = 0
KFR1 142119Z 00004KT 13/M00 A3035 RMK A01 T01261002  RH  041%=      5-min Rain = 0
KFR1 142120Z 04004KT 13/M00 A3035 RMK A01 T01251002  RH  042%=      5-min Rain = 0
KFR1 142121Z 03003KT 13/M00 A3035 RMK A01 T01251003  RH  041%=      5-min Rain = 0
KFR1 142122Z 01005KT 13/M00 A3034 RMK A01 T01251004  RH  041%=      5-min Rain = 0
KFR1 142123Z 03005KT 12/M01 A3034 RMK A01 T01231005  RH  041%=      5-min Rain = 0
KFR1 142124Z 06003KT 12/M01 A3034 RMK A01 T01231005  RH  041%=      5-min Rain = 0
KFR1 142125Z 05003KT 12/M00 A3034 RMK A01 T01221004  RH  042%=      5-min Rain = 0
KFR1 142126Z 03003KT 12/M00 A3034 RMK A01 T01231003  RH  042%=      5-min Rain = 0
KFR1 142127Z 04003KT 13/00 A3034 RMK A01 T01250000  RH  042%=      5-min Rain = 0
KFR1 142128Z 04004KT 13/M00 A3034 RMK A01 T01281002  RH  041%=      5-min Rain = 0
KFR1 142129Z 03002KT 13/M01 A3034 RMK A01 T01261005  RH  040%=      5-min Rain = 0
KFR1 142130Z 02002KT 13/M01 A3034 RMK A01 T01261005  RH  040%=      5-min Rain = 0
KFR1 142131Z 01001KT 13/M00 A3035 RMK A01 T01261004  RH  041%=      5-min Rain = 0
KFR1 142132Z 35003KT 13/M00 A3035 RMK A01 T01271004  RH  040%=      5-min Rain = 0
KFR1 142133Z 35004KT 13/M00 A3035 RMK A01 T01271004  RH  040%=      5-min Rain = 0
KFR1 142134Z 00004KT 13/M00 A3035 RMK A01 T01271003  RH  041%=      5-min Rain = 0
KFR1 142135Z 00005KT 13/M00 A3035 RMK A01 T01271003  RH  041%=      5-min Rain = 0
KFR1 142136Z 35004KT 13/M00 A3035 RMK A01 T01251003  RH  041%=      5-min Rain = 0
KFR1 142137Z 00006KT 12/00 A3035 RMK A01 T01240001  RH  043%=      5-min Rain = 0
KFR1 142138Z 00005KT 12/00 A3034 RMK A01 T01230001  RH  043%=      5-min Rain = 0
KFR1 142139Z 01004KT 12/00 A3034 RMK A01 T01220002  RH  044%=      5-min Rain = 0
KFR1 142140Z 00004KT 12/00 A3034 RMK A01 T01220001  RH  043%=      5-min Rain = 0
KFR1 142141Z 02004KT 12/00 A3034 RMK A01 T012200-0  RH  043%=      5-min Rain = 0
KFR1 142142Z 03004KT 12/M00 A3034 RMK A01 T01221004  RH  042%=      5-min Rain = 0
KFR1 142143Z 02004KT 12/M01 A3034 RMK A01 T01221005  RH  042%=      5-min Rain = 0
KFR1 142144Z 01004KT 12/M00 A3034 RMK A01 T01221004  RH  042%=      5-min Rain = 0
KFR1 142145Z 00005KT 12/M00 A3034 RMK A01 T01221003  RH  042%=      5-min Rain = 0
KFR1 142146Z 02006KT 12/M00 A3034 RMK A01 T01221004  RH  042%=      5-min Rain = 0
KFR1 142147Z 02005KT 12/M00 A3035 RMK A01 T01221004  RH  042%=      5-min Rain = 0
KFR1 142148Z 02003KT 12/M01 A3035 RMK A01 T01211005  RH  042%=      5-min Rain = 0
KFR1 142149Z 02003KT 12/M01 A3035 RMK A01 T01221006  RH  041%=      5-min Rain = 0
KFR1 142150Z 35004KT 12/M01 A3034 RMK A01 T01221007  RH  041%=      5-min Rain = 0
KFR1 142151Z 35004KT 12/M00 A3034 RMK A01 T01221004  RH  042%=      5-min Rain = 0
KFR1 142152Z 36005KT 12/M00 A3034 RMK A01 T01221003  RH  042%=      5-min Rain = 0
KFR1 142153Z 36005KT 12/M00 A3034 RMK A01 T01211001  RH  043%=      5-min Rain = 0
KFR1 142154Z 35003KT 12/00 A3034 RMK A01 T01210000  RH  043%=      5-min Rain = 0
KFR1 142155Z 35004KT 12/00 A3034 RMK A01 T01210001  RH  043%=      5-min Rain = 0
KFR1 142156Z 34004KT 12/00 A3034 RMK A01 T01210000  RH  043%=      5-min Rain = 0
KFR1 142157Z 32003KT 12/00 A3034 RMK A01 T01220000  RH  043%=      5-min Rain = 0
KFR1 142158Z 33003KT 12/00 A3034 RMK A01 T01240003  RH  044%=      5-min Rain = 0
KFR1 142159Z 02005G10KT 13/00 A3034 RMK A01 T01250004  RH  044%=      5-min Rain = 0
KFR1 142200Z 07006KT 13/M00 A3034 RMK A01 T01251003  RH  041%=      5-min Rain = 0
KFR1 142201Z 09003KT 13/M00 A3035 RMK A01 T01251002  RH  042%=      5-min Rain = 0
KFR1 142202Z 11004KT 12/M00 A3035 RMK A01 T01241003  RH  042%=      5-min Rain = 0
KFR1 142203Z 08004KT 12/M01 A3035 RMK A01 T01241006  RH  041%=      5-min Rain = 0
KFR1 142204Z 07005KT 12/M01 A3034 RMK A01 T01241008  RH  040%=      5-min Rain = 0
KFR1 142205Z 09004KT 12/M01 A3034 RMK A01 T01241010  RH  040%=      5-min Rain = 0
KFR1 142206Z 11002KT 12/M01 A3034 RMK A01 T01241010  RH  040%=      5-min Rain = 0
KFR1 142207Z 08002KT 12/M01 A3034 RMK A01 T01231011  RH  040%=      5-min Rain = 0
KFR1 142208Z 04002KT 12/M01 A3034 RMK A01 T01231011  RH  040%=      5-min Rain = 0
KFR1 142209Z 03002KT 12/M01 A3034 RMK A01 T01241008  RH  040%=      5-min Rain = 0
KFR1 142210Z 02001KT 13/M01 A3034 RMK A01 T01251006  RH  041%=      5-min Rain = 0
KFR1 142211Z 00002KT 12/M00 A3034 RMK A01 T01241004  RH  041%=      5-min Rain = 0
KFR1 142212Z 04002KT 12/M01 A3034 RMK A01 T01241005  RH  041%=      5-min Rain = 0
KFR1 142213Z 06002KT 12/M00 A3034 RMK A01 T01231004  RH  042%=      5-min Rain = 0
KFR1 142214Z 11001KT 12/M01 A3034 RMK A01 T01221005  RH  041%=      5-min Rain = 0
KFR1 142215Z 10002KT 12/M01 A3034 RMK A01 T01221006  RH  041%=      5-min Rain = 0
KFR1 142216Z 09002KT 12/M01 A3034 RMK A01 T01211006  RH  041%=      5-min Rain = 0
KFR1 142217Z 05002KT 12/M00 A3034 RMK A01 T01211004  RH  042%=      5-min Rain = 0
KFR1 142218Z 04002KT 12/M00 A3034 RMK A01 T01211003  RH  042%=      5-min Rain = 0
KFR1 142219Z 07003KT 12/M00 A3034 RMK A01 T01221003  RH  042%=      5-min Rain = 0
KFR1 142220Z 06003KT 12/M01 A3034 RMK A01 T01221006  RH  041%=      5-min Rain = 0
KFR1 142221Z 09004KT 12/M01 A3034 RMK A01 T01231007  RH  041%=      5-min Rain = 0
KFR1 142222Z 11004KT 12/M01 A3034 RMK A01 T01241009  RH  040%=      5-min Rain = 0
KFR1 142223Z 11003KT 12/M01 A3034 RMK A01 T01241008  RH  040%=      5-min Rain = 0
KFR1 142224Z 13002KT 12/M01 A3034 RMK A01 T01241009  RH  040%=      5-min Rain = 0
KFR1 142225Z 15002KT 12/M01 A3034 RMK A01 T01241009  RH  040%=      5-min Rain = 0
KFR1 142226Z 12001KT 12/M01 A3034 RMK A01 T01241009  RH  040%=      5-min Rain = 0
KFR1 142227Z 09005KT 13/M01 A3034 RMK A01 T01251009  RH  040%=      5-min Rain = 0
KFR1 142228Z 09004KT 13/M01 A3034 RMK A01 T01251009  RH  040%=      5-min Rain = 0
KFR1 142229Z 10005KT 12/M01 A3034 RMK A01 T01241009  RH  040%=      5-min Rain = 0
KFR1 142230Z 10006KT 12/M01 A3034 RMK A01 T01231010  RH  040%=      5-min Rain = 0
KFR1 142231Z 09005KT 12/M01 A3034 RMK A01 T01231009  RH  040%=      5-min Rain = 0
KFR1 142232Z 10004KT 12/M01 A3034 RMK A01 T01221009  RH  040%=      5-min Rain = 0
KFR1 142233Z 10005KT 12/M01 A3034 RMK A01 T01221009  RH  040%=      5-min Rain = 0
KFR1 142234Z 10004KT 12/M01 A3034 RMK A01 T01221009  RH  040%=      5-min Rain = 0
KFR1 142235Z 10003KT 12/M01 A3034 RMK A01 T01221009  RH  040%=      5-min Rain = 0
KFR1 142236Z 11003KT 12/M01 A3034 RMK A01 T01221010  RH  040%=      5-min Rain = 0
KFR1 142237Z 06005KT 12/M01 A3034 RMK A01 T01221009  RH  040%=      5-min Rain = 0
KFR1 142238Z 06005KT 12/M01 A3034 RMK A01 T01221009  RH  040%=      5-min Rain = 0
KFR1 142239Z 07004KT 12/M01 A3034 RMK A01 T01211010  RH  040%=      5-min Rain = 0
KFR1 142240Z 10003KT 12/M01 A3034 RMK A01 T01221009  RH  040%=      5-min Rain = 0
KFR1 142241Z 10004KT 12/M01 A3034 RMK A01 T01211010  RH  040%=      5-min Rain = 0
KFR1 142242Z 09005KT 12/M01 A3034 RMK A01 T01211009  RH  040%=      5-min Rain = 0
KFR1 142243Z 08006KT 12/M01 A3034 RMK A01 T01211009  RH  041%=      5-min Rain = 0
KFR1 142244Z 08006KT 12/M01 A3034 RMK A01 T01211009  RH  041%=      5-min Rain = 0
KFR1 142245Z 07005KT 12/M01 A3034 RMK A01 T01201010  RH  041%=      5-min Rain = 0
KFR1 142246Z 09004KT 12/M01 A3034 RMK A01 T01201010  RH  041%=      5-min Rain = 0
KFR1 142247Z 07005KT 12/M01 A3034 RMK A01 T01201009  RH  041%=      5-min Rain = 0
KFR1 142248Z 05005KT 12/M01 A3034 RMK A01 T01201009  RH  041%=      5-min Rain = 0
KFR1 142249Z 04006KT 12/M01 A3034 RMK A01 T01201009  RH  041%=      5-min Rain = 0
KFR1 142250Z 04005KT 12/M01 A3034 RMK A01 T01191009  RH  041%=      5-min Rain = 0
KFR1 142251Z 06004KT 12/M01 A3034 RMK A01 T01191009  RH  041%=      5-min Rain = 0
KFR1 142252Z 05003KT 12/M01 A3034 RMK A01 T01181009  RH  041%=      5-min Rain = 0
KFR1 142253Z 05005KT 12/M01 A3034 RMK A01 T01181009  RH  041%=      5-min Rain = 0
KFR1 142254Z 06004KT 12/M01 A3034 RMK A01 T01181009  RH  041%=      5-min Rain = 0
KFR1 142255Z 06004KT 12/M01 A3034 RMK A01 T01181009  RH  041%=      5-min Rain = 0
KFR1 142256Z 06004KT 12/M01 A3034 RMK A01 T01181009  RH  041%=      5-min Rain = 0
KFR1 142257Z 07003KT 12/M01 A3034 RMK A01 T01181010  RH  041%=      5-min Rain = 0
KFR1 142258Z 10002KT 12/M01 A3034 RMK A01 T01181009  RH  041%=      5-min Rain = 0
KFR1 142259Z 13002KT 12/M01 A3034 RMK A01 T01181009  RH  041%=      5-min Rain = 0
KFR1 142300Z 11003KT 12/M01 A3034 RMK A01 T01191009  RH  041%=      5-min Rain = 0
KFR1 142301Z 10003KT 12/M01 A3034 RMK A01 T01191009  RH  041%=      5-min Rain = 0
KFR1 142302Z 10004KT 12/M01 A3034 RMK A01 T01181009  RH  041%=      5-min Rain = 0
KFR1 142303Z 09005KT 12/M01 A3034 RMK A01 T01171009  RH  041%=      5-min Rain = 0
KFR1 142304Z 09004KT 12/M01 A3034 RMK A01 T01171009  RH  042%=      5-min Rain = 0
KFR1 142305Z 09004KT 12/M01 A3035 RMK A01 T01161008  RH  042%=      5-min Rain = 0
KFR1 142306Z 10005KT 12/M01 A3035 RMK A01 T01151009  RH  042%=      5-min Rain = 0
KFR1 142307Z 09004KT 12/M01 A3035 RMK A01 T01151009  RH  042%=      5-min Rain = 0
KFR1 142308Z 09004KT 11/M01 A3035 RMK A01 T01141009  RH  043%=      5-min Rain = 0
KFR1 142309Z 09004KT 11/M01 A3035 RMK A01 T01131009  RH  043%=      5-min Rain = 0
KFR1 142310Z 10003KT 11/M01 A3035 RMK A01 T01121009  RH  043%=      5-min Rain = 0
KFR1 142311Z 10005KT 11/M01 A3035 RMK A01 T01121009  RH  043%=      5-min Rain = 0
KFR1 142312Z 10006KT 11/M01 A3035 RMK A01 T01121009  RH  043%=      5-min Rain = 0
KFR1 142313Z 10005KT 11/M01 A3035 RMK A01 T01121009  RH  043%=      5-min Rain = 0
KFR1 142314Z 11004KT 11/M01 A3035 RMK A01 T01121009  RH  043%=      5-min Rain = 0
KFR1 142315Z 11004KT 11/M01 A3035 RMK A01 T01121009  RH  043%=      5-min Rain = 0
KFR1 142316Z 10004KT 11/M01 A3035 RMK A01 T01121009  RH  043%=      5-min Rain = 0
KFR1 142317Z 11005KT 11/M01 A3035 RMK A01 T01111009  RH  043%=      5-min Rain = 0
KFR1 142318Z 11006KT 11/M01 A3035 RMK A01 T01111009  RH  043%=      5-min Rain = 0
KFR1 142319Z 11005KT 11/M01 A3035 RMK A01 T01101009  RH  044%=      5-min Rain = 0
KFR1 142320Z 10005KT 11/M01 A3035 RMK A01 T01081009  RH  044%=      5-min Rain = 0
KFR1 142321Z 10005KT 11/M01 A3035 RMK A01 T01081009  RH  044%=      5-min Rain = 0
KFR1 142322Z 10005KT 11/M01 A3035 RMK A01 T01081009  RH  044%=      5-min Rain = 0
KFR1 142323Z 10005KT 11/M01 A3035 RMK A01 T01081009  RH  044%=      5-min Rain = 0
KFR1 142324Z 11005KT 11/M01 A3035 RMK A01 T01081009  RH  044%=      5-min Rain = 0
KFR1 142325Z 11005KT 11/M01 A3035 RMK A01 T01071009  RH  045%=      5-min Rain = 0
KFR1 142326Z 11005KT 11/M01 A3035 RMK A01 T01061009  RH  045%=      5-min Rain = 0
KFR1 142327Z 10006KT 11/M01 A3035 RMK A01 T01061009  RH  045%=      5-min Rain = 0
KFR1 142328Z 10005KT 11/M01 A3035 RMK A01 T01051009  RH  045%=      5-min Rain = 0
KFR1 142329Z 10005KT 10/M01 A3035 RMK A01 T01041009  RH  045%=      5-min Rain = 0
KFR1 142330Z 10005KT 10/M01 A3035 RMK A01 T01041009  RH  045%=      5-min Rain = 0
KFR1 142331Z 10005KT 10/M01 A3035 RMK A01 T01031010  RH  046%=      5-min Rain = 0
KFR1 142332Z 10005KT 10/M01 A3035 RMK A01 T01031009  RH  046%=      5-min Rain = 0
KFR1 142333Z 10005KT 10/M01 A3035 RMK A01 T01031009  RH  046%=      5-min Rain = 0
KFR1 142334Z 10005KT 10/M01 A3035 RMK A01 T01031009  RH  046%=      5-min Rain = 0
KFR1 142335Z 10005KT 10/M01 A3035 RMK A01 T01031009  RH  046%=      5-min Rain = 0
KFR1 142336Z 10005KT 10/M01 A3035 RMK A01 T01031009  RH  046%=      5-min Rain = 0
KFR1 142337Z 10005KT 10/M01 A3035 RMK A01 T01031009  RH  046%=      5-min Rain = 0
KFR1 142338Z 11005KT 10/M01 A3035 RMK A01 T01031009  RH  046%=      5-min Rain = 0
KFR1 142339Z 11005KT 10/M01 A3035 RMK A01 T01031009  RH  046%=      5-min Rain = 0
KFR1 142340Z 11005KT 10/M01 A3035 RMK A01 T01031009  RH  046%=      5-min Rain = 0
KFR1 142341Z 11005KT 10/M01 A3035 RMK A01 T01031009  RH  046%=      5-min Rain = 0
KFR1 142342Z 11005KT 10/M01 A3035 RMK A01 T01031009  RH  046%=      5-min Rain = 0
KFR1 142343Z 11005KT 10/M01 A3035 RMK A01 T01041009  RH  045%=      5-min Rain = 0
KFR1 142344Z 12005KT 10/M01 A3035 RMK A01 T01041009  RH  045%=      5-min Rain = 0
KFR1 142345Z 12005KT 11/M01 A3035 RMK A01 T01051010  RH  045%=      5-min Rain = 0
KFR1 142346Z 11005KT 11/M01 A3035 RMK A01 T01051010  RH  045%=      5-min Rain = 0
KFR1 142347Z 11005KT 11/M01 A3035 RMK A01 T01051010  RH  045%=      5-min Rain = 0
KFR1 142348Z 12005KT 11/M01 A3035 RMK A01 T01051010  RH  045%=      5-min Rain = 0
KFR1 142349Z 12005KT 11/M01 A3035 RMK A01 T01051010  RH  045%=      5-min Rain = 0
KFR1 142350Z 12005KT 11/M01 A3036 RMK A01 T01051010  RH  045%=      5-min Rain = 0
KFR1 142351Z 13005KT 11/M01 A3036 RMK A01 T01051010  RH  045%=      5-min Rain = 0
KFR1 142352Z 13005KT 11/M01 A3036 RMK A01 T01051010  RH  045%=      5-min Rain = 0
KFR1 142353Z 12005KT 11/M01 A3036 RMK A01 T01051010  RH  045%=      5-min Rain = 0
KFR1 142354Z 12005KT 11/M01 A3036 RMK A01 T01061010  RH  045%=      5-min Rain = 0
KFR1 142355Z 12005KT 11/M01 A3036 RMK A01 T01051010  RH  045%=      5-min Rain = 0
KFR1 142356Z 12005KT 11/M01 A3036 RMK A01 T01051010  RH  045%=      5-min Rain = 0
KFR1 142357Z 12005KT 10/M01 A3036 RMK A01 T01041010  RH  045%=      5-min Rain = 0
KFR1 142358Z 12005KT 10/M01 A3036 RMK A01 T01041010  RH  045%=      5-min Rain = 0
KFR1 142359Z 12005KT 10/M01 A3036 RMK A01 T01041010  RH  045%=      5-min Rain = 0
KFR1 150000Z 13005KT 10/M01 A3036 RMK A01 T01041010  RH  045%=      5-min Rain = 0
KFR1 150001Z 13005KT 10/M01 A3036 RMK A01 T01041010  RH  045%=      5-min Rain = 0
KFR1 150002Z 12005KT 11/M01 A3036 RMK A01 T01051010  RH  045%=      5-min Rain = 0
KFR1 150003Z 13005KT 11/M01 A3036 RMK A01 T01051010  RH  045%=      5-min Rain = 0
KFR1 150004Z 13005KT 11/M01 A3036 RMK A01 T01051010  RH  045%=      5-min Rain = 0
KFR1 150005Z 13005KT 11/M01 A3036 RMK A01 T01061010  RH  045%=      5-min Rain = 0
KFR1 150006Z 13004KT 11/M01 A3036 RMK A01 T01051010  RH  045%=      5-min Rain = 0
KFR1 150007Z 14004KT 11/M01 A3036 RMK A01 T01051010  RH  045%=      5-min Rain = 0
KFR1 150008Z 13005KT 10/M01 A3036 RMK A01 T01041010  RH  045%=      5-min Rain = 0
KFR1 150009Z 13005KT 10/M01 A3036 RMK A01 T01041010  RH  045%=      5-min Rain = 0
KFR1 150010Z 13005KT 10/M01 A3036 RMK A01 T01041010  RH  045%=      5-min Rain = 0
KFR1 150011Z 13005KT 10/M01 A3037 RMK A01 T01041010  RH  045%=      5-min Rain = 0
KFR1 150012Z 13005KT 10/M01 A3037 RMK A01 T01041010  RH  045%=      5-min Rain = 0
KFR1 150013Z 13005KT 10/M01 A3037 RMK A01 T01041010  RH  045%=      5-min Rain = 0
KFR1 150014Z 13004KT 10/M01 A3037 RMK A01 T01041010  RH  045%=      5-min Rain = 0
KFR1 150015Z 13005KT 10/M01 A3037 RMK A01 T01041010  RH  045%=      5-min Rain = 0
KFR1 150016Z 13005KT 10/M01 A3037 RMK A01 T01031010  RH  045%=      5-min Rain = 0
KFR1 150017Z 13005KT 10/M01 A3037 RMK A01 T01031010  RH  045%=      5-min Rain = 0
KFR1 150018Z 13005KT 10/M01 A3037 RMK A01 T01021011  RH  045%=      5-min Rain = 0
KFR1 150019Z 14005KT 10/M01 A3037 RMK A01 T01021011  RH  046%=      5-min Rain = 0
KFR1 150020Z 14005KT 10/M01 A3037 RMK A01 T01011011  RH  046%=      5-min Rain = 0
KFR1 150021Z 14005KT 10/M01 A3037 RMK A01 T01001011  RH  046%=      5-min Rain = 0
KFR1 150022Z 13006KT 10/M01 A3037 RMK A01 T01001011  RH  046%=      5-min Rain = 0
KFR1 150023Z 14006KT 10/M01 A3037 RMK A01 T00991011  RH  046%=      5-min Rain = 0
KFR1 150024Z 13006KT 10/M01 A3037 RMK A01 T00981012  RH  046%=      5-min Rain = 0
KFR1 150025Z 13006KT 10/M01 A3037 RMK A01 T00981012  RH  046%=      5-min Rain = 0
KFR1 150026Z 13006KT 10/M01 A3037 RMK A01 T00971012  RH  047%=      5-min Rain = 0
KFR1 150027Z 13007KT 10/M01 A3037 RMK A01 T00971012  RH  047%=      5-min Rain = 0
KFR1 150028Z 13007KT 10/M01 A3037 RMK A01 T00981012  RH  047%=      5-min Rain = 0
KFR1 150029Z 13006KT 10/M01 A3037 RMK A01 T00971012  RH  046%=      5-min Rain = 0
KFR1 150030Z 13006KT 10/M01 A3037 RMK A01 T00971012  RH  047%=      5-min Rain = 0
KFR1 150031Z 13007KT 10/M01 A3037 RMK A01 T00961012  RH  047%=      5-min Rain = 0
KFR1 150032Z 13007KT 10/M01 A3037 RMK A01 T00961012  RH  047%=      5-min Rain = 0
KFR1 150033Z 13007KT 10/M01 A3037 RMK A01 T00961012  RH  047%=      5-min Rain = 0
KFR1 150034Z 13007KT 10/M01 A3037 RMK A01 T00961012  RH  047%=      5-min Rain = 0
KFR1 150035Z 14007KT 10/M01 A3037 RMK A01 T00961012  RH  047%=      5-min Rain = 0
KFR1 150036Z 14007KT 10/M01 A3037 RMK A01 T00951013  RH  047%=      5-min Rain = 0
KFR1 150037Z 14006KT 09/M01 A3037 RMK A01 T00931013  RH  047%=      5-min Rain = 0
KFR1 150038Z 14007KT 09/M01 A3037 RMK A01 T00921013  RH  048%=      5-min Rain = 0
KFR1 150039Z 14008KT 09/M01 A3037 RMK A01 T00911013  RH  048%=      5-min Rain = 0
KFR1 150040Z 14007KT 09/M01 A3037 RMK A01 T00911013  RH  048%=      5-min Rain = 0
KFR1 150041Z 14007KT 09/M01 A3037 RMK A01 T00901013  RH  048%=      5-min Rain = 0
KFR1 150042Z 14007KT 09/M01 A3037 RMK A01 T00901013  RH  048%=      5-min Rain = 0
KFR1 150043Z 14008KT 09/M01 A3037 RMK A01 T00901013  RH  049%=      5-min Rain = 0
KFR1 150044Z 14007KT 09/M01 A3037 RMK A01 T00901013  RH  048%=      5-min Rain = 0
KFR1 150045Z 14007KT 09/M01 A3037 RMK A01 T00901013  RH  048%=      5-min Rain = 0
KFR1 150046Z 14007KT 09/M01 A3037 RMK A01 T00901013  RH  048%=      5-min Rain = 0
KFR1 150047Z 14008KT 09/M01 A3037 RMK A01 T00901013  RH  048%=      5-min Rain = 0
KFR1 150048Z 15008KT 09/M01 A3037 RMK A01 T00891014  RH  049%=      5-min Rain = 0
KFR1 150049Z 14009KT 09/M01 A3037 RMK A01 T00871014  RH  049%=      5-min Rain = 0
KFR1 150050Z 14008KT 09/M01 A3037 RMK A01 T00861014  RH  049%=      5-min Rain = 0
KFR1 150051Z 14009KT 09/M01 A3037 RMK A01 T00861013  RH  050%=      5-min Rain = 0
KFR1 150052Z 14008KT 09/M01 A3037 RMK A01 T00871013  RH  050%=      5-min Rain = 0
KFR1 150053Z 14008KT 09/M01 A3037 RMK A01 T00881012  RH  049%=      5-min Rain = 0
KFR1 150054Z 14009KT 09/M01 A3037 RMK A01 T00891012  RH  049%=      5-min Rain = 0
KFR1 150055Z 14008KT 09/M01 A3037 RMK A01 T00891012  RH  049%=      5-min Rain = 0
KFR1 150056Z 13008KT 09/M01 A3037 RMK A01 T00891012  RH  049%=      5-min Rain = 0
KFR1 150057Z 14008KT 09/M01 A3037 RMK A01 T00901011  RH  049%=      5-min Rain = 0
KFR1 150058Z 14007KT 09/M01 A3037 RMK A01 T00901011  RH  049%=      5-min Rain = 0
KFR1 150059Z 14007KT 09/M01 A3037 RMK A01 T00901011  RH  049%=      5-min Rain = 0
KFR1 150100Z 13007KT 09/M01 A3037 RMK A01 T00891011  RH  049%=      5-min Rain = 0
KFR1 150101Z 14008KT 09/M01 A3038 RMK A01 T00891011  RH  050%=      5-min Rain = 0
KFR1 150102Z 14007KT 09/M01 A3038 RMK A01 T00881011  RH  050%=      5-min Rain = 0
KFR1 150103Z 14008KT 09/M01 A3038 RMK A01 T00881011  RH  050%=      5-min Rain = 0
KFR1 150104Z 14008KT 09/M01 A3038 RMK A01 T00871011  RH  050%=      5-min Rain = 0
KFR1 150105Z 14008KT 09/M01 A3038 RMK A01 T00871011  RH  050%=      5-min Rain = 0
KFR1 150106Z 14008KT 09/M01 A3038 RMK A01 T00861011  RH  050%=      5-min Rain = 0
KFR1 150107Z 15008KT 09/M01 A3038 RMK A01 T00851012  RH  051%=      5-min Rain = 0
KFR1 150108Z 15008KT 08/M01 A3038 RMK A01 T00831013  RH  051%=      5-min Rain = 0
KFR1 150109Z 15008KT 08/M01 A3038 RMK A01 T00811013  RH  052%=      5-min Rain = 0
KFR1 150110Z 15008KT 08/M01 A3038 RMK A01 T00801012  RH  052%=      5-min Rain = 0
KFR1 150111Z 15008KT 08/M01 A3038 RMK A01 T00791012  RH  052%=      5-min Rain = 0
KFR1 150112Z 15008KT 08/M01 A3038 RMK A01 T00781012  RH  053%=      5-min Rain = 0
KFR1 150113Z 15008KT 08/M01 A3038 RMK A01 T00781012  RH  053%=      5-min Rain = 0
KFR1 150114Z 15008KT 08/M01 A3038 RMK A01 T00771012  RH  053%=      5-min Rain = 0
KFR1 150115Z 15009KT 08/M01 A3038 RMK A01 T00761013  RH  053%=      5-min Rain = 0
KFR1 150116Z 16009KT 08/M01 A3038 RMK A01 T00751013  RH  054%=      5-min Rain = 0
KFR1 150117Z 16009KT 07/M01 A3038 RMK A01 T00741013  RH  054%=      5-min Rain = 0
KFR1 150118Z 16009KT 07/M01 A3038 RMK A01 T00721014  RH  054%=      5-min Rain = 0
KFR1 150119Z 16009KT 07/M01 A3038 RMK A01 T00711014  RH  055%=      5-min Rain = 0
KFR1 150120Z 15009KT 07/M01 A3038 RMK A01 T00711014  RH  055%=      5-min Rain = 0
KFR1 150121Z 16010KT 07/M01 A3038 RMK A01 T00701014  RH  055%=      5-min Rain = 0
KFR1 150122Z 16010KT 07/M01 A3038 RMK A01 T00691013  RH  056%=      5-min Rain = 0
KFR1 150123Z 16009KT 07/M01 A3038 RMK A01 T00701013  RH  056%=      5-min Rain = 0
KFR1 150124Z 16010KT 07/M01 A3038 RMK A01 T00701013  RH  056%=      5-min Rain = 0
KFR1 150125Z 16010KT 07/M01 A3038 RMK A01 T00691013  RH  056%=      5-min Rain = 0
KFR1 150126Z 16010KT 07/M01 A3038 RMK A01 T00691013  RH  056%=      5-min Rain = 0
KFR1 150127Z 16010KT 07/M01 A3038 RMK A01 T00681013  RH  056%=      5-min Rain = 0
KFR1 150128Z 16010KT 07/M01 A3038 RMK A01 T00671013  RH  057%=      5-min Rain = 0
KFR1 150129Z 16010KT 07/M01 A3038 RMK A01 T00661013  RH  057%=      5-min Rain = 0
KFR1 150130Z 15010KT 07/M01 A3038 RMK A01 T00661013  RH  057%=      5-min Rain = 0
KFR1 150131Z 16010KT 07/M01 A3038 RMK A01 T00661012  RH  057%=      5-min Rain = 0
KFR1 150132Z 15009KT 07/M01 A3038 RMK A01 T00661012  RH  057%=      5-min Rain = 0
KFR1 150133Z 15010KT 07/M01 A3038 RMK A01 T00661012  RH  057%=      5-min Rain = 0
KFR1 150134Z 15009KT 07/M01 A3038 RMK A01 T00661012  RH  057%=      5-min Rain = 0
KFR1 150135Z 16009KT 07/M01 A3038 RMK A01 T00671012  RH  057%=      5-min Rain = 0
KFR1 150136Z 16009KT 07/M01 A3038 RMK A01 T00671012  RH  057%=      5-min Rain = 0
KFR1 150137Z 16008KT 07/M01 A3039 RMK A01 T00671011  RH  057%=      5-min Rain = 0
KFR1 150138Z 16009KT 07/M01 A3039 RMK A01 T00661012  RH  058%=      5-min Rain = 0
KFR1 150139Z 16008KT 07/M01 A3039 RMK A01 T00661012  RH  058%=      5-min Rain = 0
KFR1 150140Z 16009KT 07/M01 A3039 RMK A01 T00661012  RH  058%=      5-min Rain = 0
KFR1 150141Z 16009KT 07/M01 A3039 RMK A01 T00661011  RH  058%=      5-min Rain = 0
KFR1 150142Z 16009KT 07/M01 A3039 RMK A01 T00671011  RH  057%=      5-min Rain = 0
KFR1 150143Z 16009KT 07/M01 A3039 RMK A01 T00681011  RH  057%=      5-min Rain = 0
KFR1 150144Z 16009KT 07/M01 A3039 RMK A01 T00681011  RH  057%=      5-min Rain = 0
KFR1 150145Z 16008KT 07/M01 A3039 RMK A01 T00691011  RH  057%=      5-min Rain = 0
KFR1 150146Z 16009KT 07/M01 A3039 RMK A01 T00691011  RH  057%=      5-min Rain = 0
KFR1 150147Z 16009KT 07/M01 A3039 RMK A01 T00691011  RH  057%=      5-min Rain = 0
KFR1 150148Z 16009KT 07/M01 A3039 RMK A01 T00681012  RH  057%=      5-min Rain = 0
KFR1 150149Z 16009KT 07/M01 A3039 RMK A01 T00671012  RH  057%=      5-min Rain = 0
KFR1 150150Z 16009KT 07/M01 A3039 RMK A01 T00661012  RH  058%=      5-min Rain = 0
KFR1 150151Z 16009KT 07/M01 A3039 RMK A01 T00661012  RH  058%=      5-min Rain = 0
KFR1 150152Z 16010KT 07/M01 A3039 RMK A01 T00661012  RH  058%=      5-min Rain = 0
KFR1 150153Z 16010KT 07/M01 A3039 RMK A01 T00651012  RH  058%=      5-min Rain = 0
KFR1 150154Z 16009KT 07/M01 A3039 RMK A01 T00651012  RH  058%=      5-min Rain = 0
KFR1 150155Z 16010KT 06/M01 A3039 RMK A01 T00641012  RH  058%=      5-min Rain = 0
KFR1 150156Z 16009KT 06/M01 A3039 RMK A01 T00641012  RH  058%=      5-min Rain = 0
KFR1 150157Z 16009KT 06/M01 A3039 RMK A01 T00631012  RH  059%=      5-min Rain = 0
KFR1 150158Z 16010KT 06/M01 A3039 RMK A01 T00631011  RH  059%=      5-min Rain = 0
KFR1 150159Z 16009KT 06/M01 A3039 RMK A01 T00641011  RH  059%=      5-min Rain = 0
KFR1 150200Z 16010KT 06/M01 A3039 RMK A01 T00641012  RH  058%=      5-min Rain = 0
KFR1 150201Z 16009KT 07/M01 A3039 RMK A01 T00651012  RH  058%=      5-min Rain = 0
KFR1 150202Z 16009KT 07/M01 A3039 RMK A01 T00651012  RH  058%=      5-min Rain = 0
KFR1 150203Z 16009KT 07/M01 A3039 RMK A01 T00651012  RH  058%=      5-min Rain = 0
KFR1 150204Z 16010KT 07/M01 A3039 RMK A01 T00651012  RH  058%=      5-min Rain = 0
KFR1 150205Z 16010KT 07/M01 A3039 RMK A01 T00651012  RH  058%=      5-min Rain = 0
KFR1 150206Z 16010KT 07/M01 A3039 RMK A01 T00651012  RH  058%=      5-min Rain = 0
KFR1 150207Z 16010KT 07/M01 A3039 RMK A01 T00651012  RH  058%=      5-min Rain = 0
KFR1 150208Z 16009KT 07/M01 A3039 RMK A01 T00651012  RH  058%=      5-min Rain = 0
KFR1 150209Z 16010KT 06/M01 A3039 RMK A01 T00641012  RH  058%=      5-min Rain = 0
KFR1 150210Z 16010KT 06/M01 A3039 RMK A01 T00631012  RH  058%=      5-min Rain = 0
KFR1 150211Z 16010KT 06/M01 A3039 RMK A01 T00631012  RH  059%=      5-min Rain = 0
KFR1 150212Z 16010KT 06/M01 A3039 RMK A01 T00621012  RH  059%=      5-min Rain = 0
KFR1 150213Z 16010KT 06/M01 A3039 RMK A01 T00621012  RH  059%=      5-min Rain = 0
KFR1 150214Z 16009KT 06/M01 A3039 RMK A01 T00621012  RH  059%=      5-min Rain = 0
KFR1 150215Z 16010KT 06/M01 A3039 RMK A01 T00631012  RH  059%=      5-min Rain = 0
KFR1 150216Z 16011KT 06/M01 A3039 RMK A01 T00631012  RH  059%=      5-min Rain = 0
KFR1 150217Z 16011KT 06/M01 A3039 RMK A01 T00631012  RH  059%=      5-min Rain = 0
KFR1 150218Z 16011KT 06/M01 A3039 RMK A01 T00631012  RH  059%=      5-min Rain = 0
KFR1 150219Z 16010KT 06/M01 A3039 RMK A01 T00631012  RH  059%=      5-min Rain = 0
KFR1 150220Z 16010KT 06/M01 A3039 RMK A01 T00631012  RH  059%=      5-min Rain = 0
KFR1 150221Z 16010KT 06/M01 A3039 RMK A01 T00631011  RH  059%=      5-min Rain = 0
KFR1 150222Z 16010KT 06/M01 A3039 RMK A01 T00631012  RH  059%=      5-min Rain = 0
KFR1 150223Z 16010KT 06/M01 A3039 RMK A01 T00641012  RH  058%=      5-min Rain = 0
KFR1 150224Z 16010KT 07/M01 A3039 RMK A01 T00651012  RH  058%=      5-min Rain = 0
KFR1 150225Z 16010KT 07/M01 A3039 RMK A01 T00651012  RH  058%=      5-min Rain = 0
KFR1 150226Z 16009KT 07/M01 A3039 RMK A01 T00651012  RH  058%=      5-min Rain = 0
KFR1 150227Z 16010KT 07/M01 A3039 RMK A01 T00661012  RH  058%=      5-min Rain = 0
KFR1 150228Z 16010KT 07/M01 A3039 RMK A01 T00661011  RH  058%=      5-min Rain = 0
KFR1 150229Z 16010KT 07/M01 A3039 RMK A01 T00661012  RH  058%=      5-min Rain = 0
KFR1 150230Z 16010KT 07/M01 A3039 RMK A01 T00661012  RH  058%=      5-min Rain = 0
KFR1 150231Z 16010KT 07/M01 A3039 RMK A01 T00651012  RH  058%=      5-min Rain = 0
KFR1 150232Z 16010KT 07/M01 A3039 RMK A01 T00651012  RH  058%=      5-min Rain = 0
KFR1 150233Z 16010KT 07/M01 A3039 RMK A01 T00661012  RH  058%=      5-min Rain = 0
KFR1 150234Z 16010KT 07/M01 A3039 RMK A01 T00661012  RH  057%=      5-min Rain = 0
KFR1 150235Z 16010KT 07/M01 A3039 RMK A01 T00661012  RH  057%=      5-min Rain = 0
KFR1 150236Z 16010KT 07/M01 A3039 RMK A01 T00661012  RH  057%=      5-min Rain = 0
KFR1 150237Z 16010KT 07/M01 A3039 RMK A01 T00661012  RH  057%=      5-min Rain = 0
KFR1 150238Z 16010KT 07/M01 A3039 RMK A01 T00661012  RH  057%=      5-min Rain = 0
KFR1 150239Z 16010KT 07/M01 A3039 RMK A01 T00661012  RH  057%=      5-min Rain = 0
KFR1 150240Z 16011KT 07/M01 A3039 RMK A01 T00661012  RH  057%=      5-min Rain = 0
KFR1 150241Z 16010KT 07/M01 A3039 RMK A01 T00671012  RH  057%=      5-min Rain = 0
KFR1 150242Z 16011KT 07/M01 A3039 RMK A01 T00671012  RH  057%=      5-min Rain = 0
KFR1 150243Z 16010KT 07/M01 A3039 RMK A01 T00671012  RH  057%=      5-min Rain = 0
KFR1 150244Z 16010KT 07/M01 A3039 RMK A01 T00671012  RH  057%=      5-min Rain = 0
KFR1 150245Z 16010KT 07/M01 A3039 RMK A01 T00671012  RH  057%=      5-min Rain = 0
KFR1 150246Z 16010KT 07/M01 A3039 RMK A01 T00681012  RH  057%=      5-min Rain = 0
KFR1 150247Z 16009KT 07/M01 A3039 RMK A01 T00681012  RH  057%=      5-min Rain = 0
KFR1 150248Z 16010KT 07/M01 A3039 RMK A01 T00671012  RH  057%=      5-min Rain = 0
KFR1 150249Z 16010KT 07/M01 A3039 RMK A01 T00671012  RH  057%=      5-min Rain = 0
KFR1 150250Z 16010KT 07/M01 A3039 RMK A01 T00671012  RH  057%=      5-min Rain = 0
KFR1 150251Z 16009KT 07/M01 A3039 RMK A01 T00671013  RH  057%=      5-min Rain = 0
KFR1 150252Z 16010KT 07/M01 A3039 RMK A01 T00671013  RH  057%=      5-min Rain = 0
KFR1 150253Z 16010KT 07/M01 A3039 RMK A01 T00671013  RH  057%=      5-min Rain = 0
KFR1 150254Z 16009KT 07/M01 A3039 RMK A01 T00671012  RH  057%=      5-min Rain = 0
KFR1 150255Z 16010KT 07/M01 A3039 RMK A01 T00661013  RH  057%=      5-min Rain = 0
KFR1 150256Z 16010KT 07/M01 A3039 RMK A01 T00661013  RH  057%=      5-min Rain = 0
KFR1 150257Z 16010KT 07/M01 A3039 RMK A01 T00651013  RH  057%=      5-min Rain = 0
KFR1 150258Z 16010KT 07/M01 A3039 RMK A01 T00651013  RH  058%=      5-min Rain = 0
KFR1 150259Z 16010KT 06/M01 A3039 RMK A01 T00641013  RH  058%=      5-min Rain = 0
KFR1 150300Z 16010KT 06/M01 A3039 RMK A01 T00641013  RH  058%=      5-min Rain = 0
KFR1 150301Z 16010KT 07/M01 A3039 RMK A01 T00651013  RH  058%=      5-min Rain = 0
KFR1 150302Z 17009KT 07/M01 A3039 RMK A01 T00651013  RH  057%=      5-min Rain = 0
KFR1 150303Z 16010KT 07/M01 A3039 RMK A01 T00651013  RH  058%=      5-min Rain = 0
KFR1 150304Z 16011KT 07/M01 A3039 RMK A01 T00651013  RH  058%=      5-min Rain = 0
KFR1 150305Z 16010KT 07/M01 A3039 RMK A01 T00651013  RH  057%=      5-min Rain = 0
KFR1 150306Z 16009KT 07/M01 A3039 RMK A01 T00661013  RH  057%=      5-min Rain = 0
KFR1 150307Z 16009KT 07/M01 A3038 RMK A01 T00661013  RH  057%=      5-min Rain = 0
KFR1 150308Z 16010KT 07/M01 A3038 RMK A01 T00651013  RH  057%=      5-min Rain = 0
KFR1 150309Z 16010KT 06/M01 A3038 RMK A01 T00641013  RH  058%=      5-min Rain = 0
KFR1 150310Z 16010KT 07/M01 A3038 RMK A01 T00651013  RH  058%=      5-min Rain = 0
KFR1 150311Z 16009KT 07/M01 A3038 RMK A01 T00651013  RH  057%=      5-min Rain = 0
KFR1 150312Z 16010KT 07/M01 A3038 RMK A01 T00651013  RH  057%=      5-min Rain = 0
KFR1 150313Z 16011KT 07/M01 A3038 RMK A01 T00651013  RH  057%=      5-min Rain = 0
KFR1 150314Z 16009KT 07/M01 A3039 RMK A01 T00651013  RH  057%=      5-min Rain = 0
KFR1 150315Z 16010KT 07/M01 A3039 RMK A01 T00651013  RH  057%=      5-min Rain = 0
KFR1 150316Z 16010KT 07/M01 A3039 RMK A01 T00651014  RH  057%=      5-min Rain = 0
KFR1 150317Z 16010KT 06/M01 A3039 RMK A01 T00641014  RH  057%=      5-min Rain = 0
KFR1 150318Z 16010KT 06/M01 A3039 RMK A01 T00641014  RH  057%=      5-min Rain = 0
KFR1 150319Z 16009KT 06/M01 A3039 RMK A01 T00641014  RH  058%=      5-min Rain = 0
KFR1 150320Z 16010KT 06/M01 A3039 RMK A01 T00631014  RH  058%=      5-min Rain = 0
KFR1 150321Z 16009KT 06/M01 A3039 RMK A01 T00631014  RH  058%=      5-min Rain = 0
KFR1 150322Z 16010KT 06/M01 A3039 RMK A01 T00631014  RH  058%=      5-min Rain = 0
KFR1 150323Z 16011KT 06/M01 A3039 RMK A01 T00631014  RH  058%=      5-min Rain = 0
KFR1 150324Z 16010KT 06/M01 A3039 RMK A01 T00631014  RH  058%=      5-min Rain = 0
KFR1 150325Z 16010KT 06/M01 A3039 RMK A01 T00631014  RH  058%=      5-min Rain = 0
KFR1 150326Z 17009KT 06/M01 A3039 RMK A01 T00631014  RH  058%=      5-min Rain = 0
KFR1 150327Z 17009KT 06/M01 A3039 RMK A01 T00631014  RH  058%=      5-min Rain = 0
KFR1 150328Z 17009KT 06/M01 A3039 RMK A01 T00621014  RH  058%=      5-min Rain = 0
KFR1 150329Z 17010KT 06/M01 A3039 RMK A01 T00621014  RH  058%=      5-min Rain = 0
KFR1 150330Z 17010KT 06/M01 A3039 RMK A01 T00621014  RH  058%=      5-min Rain = 0
KFR1 150331Z 17009KT 06/M01 A3039 RMK A01 T00621014  RH  058%=      5-min Rain = 0
KFR1 150332Z 17009KT 06/M01 A3039 RMK A01 T00631014  RH  058%=      5-min Rain = 0
KFR1 150333Z 17009KT 06/M01 A3039 RMK A01 T00621014  RH  058%=      5-min Rain = 0
KFR1 150334Z 17010KT 06/M02 A3039 RMK A01 T00611015  RH  058%=      5-min Rain = 0
KFR1 150335Z 17008KT 06/M01 A3039 RMK A01 T00611014  RH  058%=      5-min Rain = 0
KFR1 150336Z 17009KT 06/M01 A3039 RMK A01 T00611014  RH  058%=      5-min Rain = 0
KFR1 150337Z 18010KT 06/M01 A3039 RMK A01 T00611014  RH  059%=      5-min Rain = 0
KFR1 150338Z 18010KT 06/M01 A3039 RMK A01 T00611014  RH  059%=      5-min Rain = 0
KFR1 150339Z 18008KT 06/M01 A3039 RMK A01 T00611014  RH  059%=      5-min Rain = 0
KFR1 150340Z 18009KT 06/M02 A3039 RMK A01 T00601015  RH  059%=      5-min Rain = 0
KFR1 150341Z 18009KT 06/M01 A3039 RMK A01 T00601014  RH  059%=      5-min Rain = 0
KFR1 150342Z 18009KT 06/M02 A3039 RMK A01 T00591015  RH  059%=      5-min Rain = 0
KFR1 150343Z 18008KT 06/M02 A3039 RMK A01 T00581015  RH  060%=      5-min Rain = 0
KFR1 150344Z 19007KT 06/M02 A3039 RMK A01 T00571015  RH  060%=      5-min Rain = 0
KFR1 150345Z 19007KT 06/M02 A3039 RMK A01 T00561015  RH  060%=      5-min Rain = 0
KFR1 150346Z 20006KT 06/M02 A3039 RMK A01 T00561015  RH  060%=      5-min Rain = 0
KFR1 150347Z 21006KT 05/M02 A3039 RMK A01 T00541015  RH  061%=      5-min Rain = 0
KFR1 150348Z 20006KT 05/M02 A3039 RMK A01 T00521016  RH  061%=      5-min Rain = 0
KFR1 150349Z 20006KT 05/M02 A3039 RMK A01 T00511016  RH  062%=      5-min Rain = 0
KFR1 150350Z 20007KT 05/M02 A3039 RMK A01 T00501016  RH  063%=      5-min Rain = 0
KFR1 150351Z 19006KT 05/M02 A3039 RMK A01 T00491016  RH  063%=      5-min Rain = 0
KFR1 150352Z 20006KT 05/M02 A3039 RMK A01 T00471016  RH  064%=      5-min Rain = 0
KFR1 150353Z 20006KT 05/M02 A3039 RMK A01 T00461016  RH  064%=      5-min Rain = 0
KFR1 150354Z 20006KT 05/M02 A3039 RMK A01 T00451016  RH  065%=      5-min Rain = 0
KFR1 150355Z 20006KT 04/M02 A3039 RMK A01 T00441016  RH  065%=      5-min Rain = 0
KFR1 150356Z 20005KT 04/M02 A3039 RMK A01 T00431016  RH  065%=      5-min Rain = 0
KFR1 150357Z 20005KT 04/M02 A304 RMK A01 T00431016  RH  065%=      5-min Rain = 0
KFR1 150358Z 20005KT 04/M02 A304 RMK A01 T00431016  RH  065%=      5-min Rain = 0
KFR1 150359Z 20005KT 04/M02 A304 RMK A01 T00431016  RH  065%=      5-min Rain = 0
KFR1 150400Z 21005KT 04/M02 A304 RMK A01 T00431016  RH  065%=      5-min Rain = 0
KFR1 150401Z 21005KT 04/M02 A304 RMK A01 T00421017  RH  065%=      5-min Rain = 0
KFR1 150402Z 21005KT 04/M02 A304 RMK A01 T00411017  RH  066%=      5-min Rain = 0
KFR1 150403Z 21005KT 04/M02 A304 RMK A01 T00411017  RH  066%=      5-min Rain = 0
KFR1 150404Z 21005KT 04/M02 A304 RMK A01 T00411017  RH  066%=      5-min Rain = 0
KFR1 150405Z 21005KT 04/M02 A304 RMK A01 T00401018  RH  066%=      5-min Rain = 0
KFR1 150406Z 21005KT 04/M02 A304 RMK A01 T00391018  RH  066%=      5-min Rain = 0
KFR1 150407Z 21005KT 04/M02 A304 RMK A01 T00391018  RH  066%=      5-min Rain = 0
KFR1 150408Z 21005KT 04/M02 A304 RMK A01 T00391018  RH  066%=      5-min Rain = 0
KFR1 150409Z 20005KT 04/M02 A304 RMK A01 T00391018  RH  066%=      5-min Rain = 0
KFR1 150410Z 20005KT 04/M02 A304 RMK A01 T00391018  RH  066%=      5-min Rain = 0
KFR1 150411Z 20005KT 04/M02 A304 RMK A01 T00391018  RH  066%=      5-min Rain = 0
KFR1 150412Z 20005KT 04/M02 A304 RMK A01 T00391018  RH  066%=      5-min Rain = 0
KFR1 150413Z 20005KT 04/M02 A304 RMK A01 T00401018  RH  066%=      5-min Rain = 0
KFR1 150414Z 21005KT 04/M02 A304 RMK A01 T00401018  RH  066%=      5-min Rain = 0
KFR1 150415Z 21005KT 04/M02 A304 RMK A01 T00391018  RH  066%=      5-min Rain = 0
KFR1 150416Z 21006KT 04/M02 A304 RMK A01 T00391018  RH  066%=      5-min Rain = 0
KFR1 150417Z 21005KT 04/M02 A304 RMK A01 T00401018  RH  066%=      5-min Rain = 0
KFR1 150418Z 22006KT 04/M02 A304 RMK A01 T00401018  RH  066%=      5-min Rain = 0
KFR1 150419Z 22006KT 04/M02 A304 RMK A01 T00411018  RH  066%=      5-min Rain = 0
KFR1 150420Z 22006KT 04/M02 A304 RMK A01 T00401018  RH  066%=      5-min Rain = 0
KFR1 150421Z 21006KT 04/M02 A304 RMK A01 T00411018  RH  066%=      5-min Rain = 0
KFR1 150422Z 22005KT 04/M02 A304 RMK A01 T00411018  RH  066%=      5-min Rain = 0
KFR1 150423Z 22004KT 04/M02 A304 RMK A01 T00401018  RH  066%=      5-min Rain = 0
KFR1 150424Z 22004KT 04/M02 A304 RMK A01 T00401018  RH  066%=      5-min Rain = 0
KFR1 150425Z 22005KT 04/M02 A304 RMK A01 T00401018  RH  066%=      5-min Rain = 0
KFR1 150426Z 21004KT 04/M02 A304 RMK A01 T00391018  RH  066%=      5-min Rain = 0
KFR1 150427Z 22005KT 04/M02 A304 RMK A01 T00401018  RH  066%=      5-min Rain = 0
KFR1 150428Z 22005KT 04/M02 A304 RMK A01 T00411017  RH  066%=      5-min Rain = 0
KFR1 150429Z 22006KT 04/M02 A304 RMK A01 T00411017  RH  066%=      5-min Rain = 0
KFR1 150430Z 22006KT 04/M02 A304 RMK A01 T00421017  RH  066%=      5-min Rain = 0
KFR1 150431Z 22006KT 04/M02 A304 RMK A01 T00431016  RH  065%=      5-min Rain = 0
KFR1 150432Z 21006KT 05/M02 A304 RMK A01 T00451016  RH  065%=      5-min Rain = 0
KFR1 150433Z 21006KT 05/M02 A304 RMK A01 T00451016  RH  064%=      5-min Rain = 0
KFR1 150434Z 20006KT 05/M02 A304 RMK A01 T00451017  RH  064%=      5-min Rain = 0
KFR1 150435Z 20005KT 04/M02 A304 RMK A01 T00441018  RH  064%=      5-min Rain = 0
KFR1 150436Z 20006KT 04/M02 A304 RMK A01 T00421019  RH  065%=      5-min Rain = 0
KFR1 150437Z 20006KT 04/M02 A304 RMK A01 T00401019  RH  065%=      5-min Rain = 0
KFR1 150438Z 20006KT 04/M02 A304 RMK A01 T00391019  RH  066%=      5-min Rain = 0
KFR1 150439Z 19006KT 04/M02 A3039 RMK A01 T00381019  RH  066%=      5-min Rain = 0
KFR1 150440Z 19007KT 04/M02 A3039 RMK A01 T00361020  RH  067%=      5-min Rain = 0
KFR1 150441Z 19006KT 04/M02 A3039 RMK A01 T00361020  RH  067%=      5-min Rain = 0
KFR1 150442Z 20007KT 04/M02 A3039 RMK A01 T00361019  RH  067%=      5-min Rain = 0
KFR1 150443Z 19007KT 04/M02 A3039 RMK A01 T00361019  RH  067%=      5-min Rain = 0
KFR1 150444Z 20007KT 04/M02 A3039 RMK A01 T00361019  RH  067%=      5-min Rain = 0
KFR1 150445Z 20007KT 04/M02 A3039 RMK A01 T00361019  RH  067%=      5-min Rain = 0
KFR1 150446Z 20006KT 04/M02 A3039 RMK A01 T00371018  RH  067%=      5-min Rain = 0
KFR1 150447Z 20007KT 04/M02 A3039 RMK A01 T00381018  RH  067%=      5-min Rain = 0
KFR1 150448Z 20007KT 04/M02 A3039 RMK A01 T00391018  RH  066%=      5-min Rain = 0
KFR1 150449Z 20007KT 04/M02 A3039 RMK A01 T00391018  RH  066%=      5-min Rain = 0
KFR1 150450Z 20007KT 04/M02 A3039 RMK A01 T00391018  RH  066%=      5-min Rain = 0
KFR1 150451Z 19007KT 04/M02 A3039 RMK A01 T00391018  RH  066%=      5-min Rain = 0
KFR1 150452Z 19007KT 04/M02 A3039 RMK A01 T00391018  RH  066%=      5-min Rain = 0
KFR1 150453Z 20008KT 04/M02 A3039 RMK A01 T00381019  RH  066%=      5-min Rain = 0
KFR1 150454Z 19008KT 04/M02 A3039 RMK A01 T00381019  RH  066%=      5-min Rain = 0
KFR1 150455Z 20007KT 04/M02 A3039 RMK A01 T00381018  RH  066%=      5-min Rain = 0
KFR1 150456Z 20007KT 04/M02 A3039 RMK A01 T00381018  RH  066%=      5-min Rain = 0
KFR1 150457Z 20008KT 04/M02 A3039 RMK A01 T00391018  RH  066%=      5-min Rain = 0
KFR1 150458Z 20007KT 04/M02 A3039 RMK A01 T00401018  RH  066%=      5-min Rain = 0
KFR1 150459Z 20007KT 04/M02 A3039 RMK A01 T00401018  RH  066%=      5-min Rain = 0
KFR1 150500Z 20008KT 04/M02 A3039 RMK A01 T00411018  RH  066%=      5-min Rain = 0
KFR1 150501Z 20007KT 04/M02 A3039 RMK A01 T00411018  RH  065%=      5-min Rain = 0
KFR1 150502Z 20008KT 04/M02 A3039 RMK A01 T00421018  RH  065%=      5-min Rain = 0
KFR1 150503Z 21008KT 04/M02 A3039 RMK A01 T00431018  RH  065%=      5-min Rain = 0
KFR1 150504Z 21007KT 04/M02 A3039 RMK A01 T00431018  RH  065%=      5-min Rain = 0
KFR1 150505Z 21007KT 04/M02 A3039 RMK A01 T00441017  RH  064%=      5-min Rain = 0
KFR1 150506Z 22006KT 04/M02 A3039 RMK A01 T00441018  RH  064%=      5-min Rain = 0
KFR1 150507Z 21007KT 04/M02 A3039 RMK A01 T00431018  RH  065%=      5-min Rain = 0
KFR1 150508Z 21008KT 04/M02 A3039 RMK A01 T00421018  RH  065%=      5-min Rain = 0
KFR1 150509Z 21007KT 04/M02 A3039 RMK A01 T00421018  RH  065%=      5-min Rain = 0
KFR1 150510Z 21007KT 04/M02 A3039 RMK A01 T00421018  RH  065%=      5-min Rain = 0
KFR1 150511Z 21007KT 04/M02 A3039 RMK A01 T00411018  RH  066%=      5-min Rain = 0
KFR1 150512Z 21008KT 04/M02 A3039 RMK A01 T00411018  RH  066%=      5-min Rain = 0
KFR1 150513Z 20008KT 04/M02 A3039 RMK A01 T00411018  RH  065%=      5-min Rain = 0
KFR1 150514Z 21007KT 04/M02 A3039 RMK A01 T00411018  RH  065%=      5-min Rain = 0
KFR1 150515Z 21007KT 04/M02 A3039 RMK A01 T00411018  RH  066%=      5-min Rain = 0
KFR1 150516Z 21007KT 04/M02 A3039 RMK A01 T00401018  RH  066%=      5-min Rain = 0
KFR1 150517Z 21007KT 04/M02 A3039 RMK A01 T00391018  RH  066%=      5-min Rain = 0
KFR1 150518Z 21007KT 04/M02 A3039 RMK A01 T00391018  RH  066%=      5-min Rain = 0
KFR1 150519Z 21007KT 04/M02 A3039 RMK A01 T00381018  RH  067%=      5-min Rain = 0
KFR1 150520Z 21007KT 04/M02 A3039 RMK A01 T00381018  RH  067%=      5-min Rain = 0
KFR1 150521Z 20007KT 04/M02 A3039 RMK A01 T00381018  RH  067%=      5-min Rain = 0
KFR1 150522Z 21008KT 04/M02 A3039 RMK A01 T00381018  RH  067%=      5-min Rain = 0
KFR1 150523Z 21007KT 04/M02 A3039 RMK A01 T00371018  RH  067%=      5-min Rain = 0
KFR1 150524Z 21008KT 04/M02 A3039 RMK A01 T00371018  RH  067%=      5-min Rain = 0
KFR1 150525Z 21008KT 04/M02 A3039 RMK A01 T00371018  RH  067%=      5-min Rain = 0
KFR1 150526Z 21008KT 04/M02 A3039 RMK A01 T00381018  RH  067%=      5-min Rain = 0
KFR1 150527Z 22008KT 04/M02 A3039 RMK A01 T00381018  RH  067%=      5-min Rain = 0
KFR1 150528Z 21009KT 04/M02 A3039 RMK A01 T00401017  RH  066%=      5-min Rain = 0
KFR1 150529Z 22008KT 04/M02 A3039 RMK A01 T00411017  RH  066%=      5-min Rain = 0
KFR1 150530Z 22007KT 04/M02 A3039 RMK A01 T00411017  RH  066%=      5-min Rain = 0
KFR1 150531Z 22008KT 04/M02 A3039 RMK A01 T00411017  RH  066%=      5-min Rain = 0
KFR1 150532Z 22008KT 04/M02 A3039 RMK A01 T00411018  RH  065%=      5-min Rain = 0
KFR1 150533Z 21008KT 04/M02 A3039 RMK A01 T00411018  RH  065%=      5-min Rain = 0
KFR1 150534Z 21008KT 04/M02 A3039 RMK A01 T00411017  RH  065%=      5-min Rain = 0
KFR1 150535Z 21008KT 04/M02 A3039 RMK A01 T00411017  RH  066%=      5-min Rain = 0
KFR1 150536Z 21008KT 04/M02 A3039 RMK A01 T00411018  RH  066%=      5-min Rain = 0
KFR1 150537Z 21008KT 04/M02 A3039 RMK A01 T00401018  RH  066%=      5-min Rain = 0
KFR1 150538Z 21008KT 04/M02 A3039 RMK A01 T00391018  RH  066%=      5-min Rain = 0
KFR1 150539Z 20008KT 04/M02 A3039 RMK A01 T00391018  RH  066%=      5-min Rain = 0
KFR1 150540Z 21008KT 04/M02 A3039 RMK A01 T00381019  RH  067%=      5-min Rain = 0
KFR1 150541Z 20009KT 04/M02 A3039 RMK A01 T00371018  RH  067%=      5-min Rain = 0
KFR1 150542Z 21009KT 04/M02 A3039 RMK A01 T00371018  RH  067%=      5-min Rain = 0
KFR1 150543Z 21009KT 04/M02 A3039 RMK A01 T00371018  RH  067%=      5-min Rain = 0
KFR1 150544Z 21009KT 04/M02 A3039 RMK A01 T00381018  RH  067%=      5-min Rain = 0
KFR1 150545Z 21008KT 04/M02 A3039 RMK A01 T00381018  RH  067%=      5-min Rain = 0
KFR1 150546Z 21008KT 04/M02 A3039 RMK A01 T00381018  RH  067%=      5-min Rain = 0
KFR1 150547Z 21008KT 04/M02 A3039 RMK A01 T00381018  RH  067%=      5-min Rain = 0
KFR1 150548Z 21008KT 04/M02 A3039 RMK A01 T00381018  RH  067%=      5-min Rain = 0
KFR1 150549Z 20008KT 04/M02 A3039 RMK A01 T00371018  RH  067%=      5-min Rain = 0
KFR1 150550Z 21008KT 04/M02 A3039 RMK A01 T00371018  RH  067%=      5-min Rain = 0
KFR1 150551Z 21008KT 04/M02 A3039 RMK A01 T00371018  RH  067%=      5-min Rain = 0
KFR1 150552Z 20008KT 04/M02 A3039 RMK A01 T00361019  RH  068%=      5-min Rain = 0
KFR1 150553Z 21008KT 04/M02 A3039 RMK A01 T00351018  RH  068%=      5-min Rain = 0
KFR1 150554Z 21008KT 04/M02 A3039 RMK A01 T00351018  RH  068%=      5-min Rain = 0
KFR1 150555Z 21008KT 04/M02 A3039 RMK A01 T00351019  RH  068%=      5-min Rain = 0
KFR1 150556Z 21008KT 04/M02 A3039 RMK A01 T00351019  RH  068%=      5-min Rain = 0
KFR1 150557Z 21008KT 04/M02 A3039 RMK A01 T00351019  RH  068%=      5-min Rain = 0
KFR1 150558Z 21008KT 04/M02 A3039 RMK A01 T00351019  RH  068%=      5-min Rain = 0
KFR1 150559Z 21008KT 04/M02 A3039 RMK A01 T00351019  RH  068%=      5-min Rain = 0

Page generated in 0.0754 seconds.